Observation data for Claude 12 Southwest on 12/08/2018      Previous  Date       Current Mesonet Observations  Soil Data  Daily Summary Page  Observations in Plain Language
KCL1 080600Z 05009KT M01/M03 A3031 RMK A01 T10071034  RH  082%=      5-min Rain = 0
KCL1 080601Z 05007KT M01/M03 A3031 RMK A01 T10071033  RH  083%=      5-min Rain = 0
KCL1 080602Z 05008KT M01/M03 A3031 RMK A01 T10081033  RH  083%=      5-min Rain = 0
KCL1 080603Z 05007KT M01/M03 A3031 RMK A01 T10081034  RH  083%=      5-min Rain = 0
KCL1 080604Z 06007KT M01/M03 A3031 RMK A01 T10081034  RH  083%=      5-min Rain = 0
KCL1 080605Z 05007KT M01/M03 A3031 RMK A01 T10081033  RH  083%=      5-min Rain = 0
KCL1 080606Z 05007KT M01/M03 A3031 RMK A01 T10081033  RH  083%=      5-min Rain = 0
KCL1 080607Z 05007KT M01/M03 A3031 RMK A01 T10081033  RH  083%=      5-min Rain = 0
KCL1 080608Z 06006KT M01/M03 A3031 RMK A01 T10081033  RH  083%=      5-min Rain = 0
KCL1 080609Z 05005KT M01/M03 A3031 RMK A01 T10081033  RH  083%=      5-min Rain = 0
KCL1 080610Z 05005KT M01/M03 A3031 RMK A01 T10081033  RH  083%=      5-min Rain = 0
KCL1 080611Z 06006KT M01/M03 A3031 RMK A01 T10081033  RH  083%=      5-min Rain = 0
KCL1 080612Z 05007KT M01/M03 A3031 RMK A01 T10081033  RH  083%=      5-min Rain = 0
KCL1 080613Z 05008KT M01/M03 A3031 RMK A01 T10081034  RH  083%=      5-min Rain = 0
KCL1 080614Z 05008KT M01/M03 A3031 RMK A01 T10081033  RH  083%=      5-min Rain = 0
KCL1 080615Z 05008KT M01/M03 A3031 RMK A01 T10091033  RH  084%=      5-min Rain = 0
KCL1 080616Z 05007KT M01/M03 A3031 RMK A01 T10091033  RH  084%=      5-min Rain = 0
KCL1 080617Z 05007KT M01/M03 A3031 RMK A01 T10091032  RH  084%=      5-min Rain = 0
KCL1 080618Z 06008KT M01/M03 A3031 RMK A01 T10091032  RH  085%=      5-min Rain = 0
KCL1 080619Z 06008KT M01/M03 A3031 RMK A01 T10091031  RH  085%=      5-min Rain = 0
KCL1 080620Z 06008KT M01/M03 A3031 RMK A01 T10101031  RH  086%=      5-min Rain = 0
KCL1 080621Z 05006KT M01/M03 A3031 RMK A01 T10101030  RH  086%=      5-min Rain = 0
KCL1 080622Z 06007KT M01/M03 A3031 RMK A01 T10101029  RH  087%=      5-min Rain = 0
KCL1 080623Z 06006KT M01/M03 A3031 RMK A01 T10111029  RH  087%=      5-min Rain = 0
KCL1 080624Z 06007KT M01/M03 A3031 RMK A01 T10111029  RH  087%=      5-min Rain = 0
KCL1 080625Z 07006KT M01/M03 A3031 RMK A01 T10111029  RH  087%=      5-min Rain = 0
KCL1 080626Z 07005KT M01/M03 A3031 RMK A01 T10111029  RH  087%=      5-min Rain = 0
KCL1 080627Z 07004KT M01/M03 A3031 RMK A01 T10111029  RH  087%=      5-min Rain = 0
KCL1 080628Z 08005KT M01/M03 A3031 RMK A01 T10101029  RH  088%=      5-min Rain = 0
KCL1 080629Z 07006KT M01/M03 A3031 RMK A01 T10111029  RH  088%=      5-min Rain = 0
KCL1 080630Z 07006KT M01/M03 A303 RMK A01 T10111030  RH  087%=      5-min Rain = 0
KCL1 080631Z 06005KT M01/M03 A303 RMK A01 T10111030  RH  087%=      5-min Rain = 0
KCL1 080632Z 06005KT M01/M03 A303 RMK A01 T10111030  RH  087%=      5-min Rain = 0
KCL1 080633Z 05005KT M01/M03 A303 RMK A01 T10111031  RH  086%=      5-min Rain = 0
KCL1 080634Z 05005KT M01/M03 A303 RMK A01 T10111031  RH  086%=      5-min Rain = 0
KCL1 080635Z 05005KT M01/M03 A303 RMK A01 T10101031  RH  086%=      5-min Rain = 0
KCL1 080636Z 05004KT M01/M03 A303 RMK A01 T10101031  RH  086%=      5-min Rain = 0
KCL1 080637Z 05005KT M01/M03 A303 RMK A01 T10101031  RH  086%=      5-min Rain = 0
KCL1 080638Z 04005KT M01/M03 A303 RMK A01 T10101032  RH  085%=      5-min Rain = 0
KCL1 080639Z 04006KT M01/M03 A303 RMK A01 T10101033  RH  085%=      5-min Rain = 0
KCL1 080640Z 04007KT M01/M03 A303 RMK A01 T10101033  RH  084%=      5-min Rain = 0
KCL1 080641Z 04006KT M01/M03 A303 RMK A01 T10101034  RH  084%=      5-min Rain = 0
KCL1 080642Z 04007KT M01/M03 A303 RMK A01 T10111034  RH  084%=      5-min Rain = 0
KCL1 080643Z 04007KT M01/M03 A303 RMK A01 T10111034  RH  084%=      5-min Rain = 0
KCL1 080644Z 04007KT M01/M03 A303 RMK A01 T10111033  RH  085%=      5-min Rain = 0
KCL1 080645Z 05007KT M01/M03 A303 RMK A01 T10111032  RH  086%=      5-min Rain = 0
KCL1 080646Z 06006KT M01/M03 A303 RMK A01 T10121032  RH  086%=      5-min Rain = 0
KCL1 080647Z 06006KT M01/M03 A303 RMK A01 T10121032  RH  086%=      5-min Rain = 0
KCL1 080648Z 07006KT M01/M03 A303 RMK A01 T10121032  RH  086%=      5-min Rain = 0
KCL1 080649Z 07006KT M01/M03 A303 RMK A01 T10121032  RH  086%=      5-min Rain = 0
KCL1 080650Z 07005KT M01/M03 A303 RMK A01 T10121031  RH  087%=      5-min Rain = 0
KCL1 080651Z 07005KT M01/M03 A303 RMK A01 T10131031  RH  087%=      5-min Rain = 0
KCL1 080652Z 07005KT M01/M03 A303 RMK A01 T10121031  RH  087%=      5-min Rain = 0
KCL1 080653Z 06006KT M01/M03 A303 RMK A01 T10131031  RH  087%=      5-min Rain = 0
KCL1 080654Z 06005KT M01/M03 A303 RMK A01 T10121032  RH  087%=      5-min Rain = 0
KCL1 080655Z 06004KT M01/M03 A303 RMK A01 T10121032  RH  086%=      5-min Rain = 0
KCL1 080656Z 07004KT M01/M03 A303 RMK A01 T10121032  RH  086%=      5-min Rain = 0
KCL1 080657Z 05005KT M01/M03 A303 RMK A01 T10131032  RH  086%=      5-min Rain = 0
KCL1 080658Z 07003KT M01/M03 A303 RMK A01 T10121032  RH  086%=      5-min Rain = 0
KCL1 080659Z 06005KT M01/M03 A303 RMK A01 T10121032  RH  087%=      5-min Rain = 0
KCL1 080700Z 06004KT M01/M03 A303 RMK A01 T10131033  RH  086%=      5-min Rain = 0
KCL1 080701Z 05005KT M01/M03 A303 RMK A01 T10131033  RH  086%=      5-min Rain = 0
KCL1 080702Z 05004KT M01/M03 A303 RMK A01 T10131033  RH  086%=      5-min Rain = 0
KCL1 080703Z 06004KT M01/M03 A303 RMK A01 T10121033  RH  086%=      5-min Rain = 0
KCL1 080704Z 06004KT M01/M03 A303 RMK A01 T10121033  RH  086%=      5-min Rain = 0
KCL1 080705Z 05004KT M01/M03 A303 RMK A01 T10121033  RH  086%=      5-min Rain = 0
KCL1 080706Z 04004KT M01/M03 A303 RMK A01 T10131034  RH  086%=      5-min Rain = 0
KCL1 080707Z 04005KT M01/M03 A303 RMK A01 T10121033  RH  086%=      5-min Rain = 0
KCL1 080708Z 03004KT M01/M03 A303 RMK A01 T10121034  RH  085%=      5-min Rain = 0
KCL1 080709Z 03004KT M01/M03 A303 RMK A01 T10121034  RH  085%=      5-min Rain = 0
KCL1 080710Z 03006KT M01/M03 A303 RMK A01 T10121034  RH  085%=      5-min Rain = 0
KCL1 080711Z 03006KT M01/M04 A303 RMK A01 T10121035  RH  085%=      5-min Rain = 0
KCL1 080712Z 03006KT M01/M04 A303 RMK A01 T10121035  RH  085%=      5-min Rain = 0
KCL1 080713Z 03006KT M01/M04 A303 RMK A01 T10121035  RH  084%=      5-min Rain = 0
KCL1 080714Z 03007KT M01/M04 A303 RMK A01 T10121035  RH  084%=      5-min Rain = 0
KCL1 080715Z 02006KT M01/M04 A3029 RMK A01 T10121035  RH  084%=      5-min Rain = 0
KCL1 080716Z 03007KT M01/M04 A3029 RMK A01 T10121035  RH  084%=      5-min Rain = 0
KCL1 080717Z 03007KT M01/M04 A3029 RMK A01 T10121036  RH  084%=      5-min Rain = 0
KCL1 080718Z 04007KT M01/M04 A3029 RMK A01 T10131037  RH  084%=      5-min Rain = 0
KCL1 080719Z 04007KT M01/M04 A3029 RMK A01 T10131037  RH  084%=      5-min Rain = 0
KCL1 080720Z 04006KT M01/M04 A3029 RMK A01 T10131037  RH  084%=      5-min Rain = 0
KCL1 080721Z 04007KT M01/M04 A3029 RMK A01 T10131036  RH  084%=      5-min Rain = 0
KCL1 080722Z 04006KT M01/M04 A3029 RMK A01 T10141037  RH  084%=      5-min Rain = 0
KCL1 080723Z 03007KT M01/M04 A3029 RMK A01 T10131036  RH  085%=      5-min Rain = 0
KCL1 080724Z 04007KT M01/M04 A3029 RMK A01 T10141036  RH  084%=      5-min Rain = 0
KCL1 080725Z 03007KT M01/M04 A3029 RMK A01 T10131036  RH  084%=      5-min Rain = 0
KCL1 080726Z 03006KT M01/M04 A3029 RMK A01 T10141036  RH  085%=      5-min Rain = 0
KCL1 080727Z 03009KT M01/M04 A3029 RMK A01 T10141036  RH  085%=      5-min Rain = 0
KCL1 080728Z 03007KT M01/M04 A3029 RMK A01 T10131035  RH  085%=      5-min Rain = 0
KCL1 080729Z 03009KT M01/M04 A3029 RMK A01 T10131035  RH  085%=      5-min Rain = 0
KCL1 080730Z 03008KT M01/M04 A3029 RMK A01 T10131035  RH  086%=      5-min Rain = 0
KCL1 080731Z 03007KT M01/M03 A3029 RMK A01 T10131034  RH  086%=      5-min Rain = 0
KCL1 080732Z 04007KT M01/M03 A3029 RMK A01 T10131034  RH  086%=      5-min Rain = 0
KCL1 080733Z 04008KT M01/M03 A3029 RMK A01 T10131033  RH  086%=      5-min Rain = 0
KCL1 080734Z 04007KT M01/M03 A3029 RMK A01 T10141034  RH  086%=      5-min Rain = 0
KCL1 080735Z 05006KT M01/M03 A3029 RMK A01 T10141033  RH  087%=      5-min Rain = 0
KCL1 080736Z 05007KT M01/M03 A3029 RMK A01 T10141033  RH  087%=      5-min Rain = 0
KCL1 080737Z 05008KT M02/M03 A3029 RMK A01 T10151033  RH  087%=      5-min Rain = 0
KCL1 080738Z 04006KT M02/M03 A3029 RMK A01 T10151033  RH  087%=      5-min Rain = 0
KCL1 080739Z 04006KT M02/M03 A3029 RMK A01 T10151033  RH  087%=      5-min Rain = 0
KCL1 080740Z 04007KT M02/M03 A3029 RMK A01 T10151033  RH  087%=      5-min Rain = 0
KCL1 080741Z 03006KT M02/M03 A3029 RMK A01 T10151034  RH  087%=      5-min Rain = 0
KCL1 080742Z 03007KT M02/M03 A3029 RMK A01 T10151034  RH  087%=      5-min Rain = 0
KCL1 080743Z 02007KT M02/M04 A3029 RMK A01 T10151035  RH  086%=      5-min Rain = 0
KCL1 080744Z 03009KT M02/M04 A3029 RMK A01 T10151035  RH  086%=      5-min Rain = 0
KCL1 080745Z 03009KT M02/M04 A3029 RMK A01 T10151035  RH  086%=      5-min Rain = 0
KCL1 080746Z 04008KT M02/M04 A3029 RMK A01 T10151036  RH  086%=      5-min Rain = 0
KCL1 080747Z 03007KT M02/M04 A3029 RMK A01 T10151036  RH  085%=      5-min Rain = 0
KCL1 080748Z 04006KT M02/M04 A3029 RMK A01 T10151037  RH  085%=      5-min Rain = 0
KCL1 080749Z 05007KT M02/M04 A3029 RMK A01 T10151036  RH  086%=      5-min Rain = 0
KCL1 080750Z 04007KT M02/M04 A3029 RMK A01 T10151036  RH  085%=      5-min Rain = 0
KCL1 080751Z 04007KT M02/M04 A3029 RMK A01 T10151037  RH  085%=      5-min Rain = 0
KCL1 080752Z 04007KT M02/M04 A3029 RMK A01 T10151036  RH  086%=      5-min Rain = 0
KCL1 080753Z 04007KT M02/M04 A3029 RMK A01 T10151037  RH  086%=      5-min Rain = 0
KCL1 080754Z 04008KT M02/M04 A3029 RMK A01 T10151037  RH  085%=      5-min Rain = 0
KCL1 080755Z 04008KT M02/M04 A3029 RMK A01 T10151036  RH  085%=      5-min Rain = 0
KCL1 080756Z 04007KT M02/M04 A3029 RMK A01 T10151037  RH  085%=      5-min Rain = 0
KCL1 080757Z 03007KT M02/M04 A3029 RMK A01 T10151037  RH  085%=      5-min Rain = 0
KCL1 080758Z 02007KT M02/M04 A3029 RMK A01 T10151037  RH  085%=      5-min Rain = 0
KCL1 080759Z 02008KT M02/M04 A3029 RMK A01 T10151036  RH  085%=      5-min Rain = 0
KCL1 080800Z 02007KT M02/M04 A3028 RMK A01 T10151037  RH  085%=      5-min Rain = 0
KCL1 080801Z 02009KT M02/M04 A3028 RMK A01 T10151036  RH  085%=      5-min Rain = 0
KCL1 080802Z 02008KT M02/M04 A3028 RMK A01 T10151036  RH  085%=      5-min Rain = 0
KCL1 080803Z 03007KT M02/M04 A3028 RMK A01 T10151036  RH  085%=      5-min Rain = 0
KCL1 080804Z 03010KT M02/M04 A3028 RMK A01 T10151036  RH  086%=      5-min Rain = 0
KCL1 080805Z 03008KT M02/M04 A3028 RMK A01 T10151036  RH  085%=      5-min Rain = 0
KCL1 080806Z 03008KT M02/M04 A3028 RMK A01 T10151036  RH  085%=      5-min Rain = 0
KCL1 080807Z 03007KT M02/M04 A3028 RMK A01 T10151037  RH  085%=      5-min Rain = 0
KCL1 080808Z 03007KT M02/M04 A3028 RMK A01 T10151037  RH  085%=      5-min Rain = 0
KCL1 080809Z 03009KT M02/M04 A3028 RMK A01 T10151036  RH  085%=      5-min Rain = 0
KCL1 080810Z 03009KT M02/M04 A3028 RMK A01 T10151037  RH  085%=      5-min Rain = 0
KCL1 080811Z 03010KT M02/M04 A3028 RMK A01 T10151037  RH  085%=      5-min Rain = 0
KCL1 080812Z 03010KT M01/M04 A3028 RMK A01 T10141037  RH  085%=      5-min Rain = 0
KCL1 080813Z 03009KT M01/M04 A3028 RMK A01 T10141038  RH  084%=      5-min Rain = 0
KCL1 080814Z 03009KT M02/M04 A3028 RMK A01 T10151038  RH  084%=      5-min Rain = 0
KCL1 080815Z 03010KT M02/M04 A3028 RMK A01 T10151038  RH  084%=      5-min Rain = 0
KCL1 080816Z 02009KT M02/M04 A3028 RMK A01 T10151038  RH  084%=      5-min Rain = 0
KCL1 080817Z 02010KT M02/M04 A3028 RMK A01 T10151038  RH  084%=      5-min Rain = 0
KCL1 080818Z 02009KT M02/M04 A3027 RMK A01 T10151038  RH  084%=      5-min Rain = 0
KCL1 080819Z 03009KT M02/M04 A3027 RMK A01 T10151038  RH  085%=      5-min Rain = 0
KCL1 080820Z 02009KT M02/M04 A3027 RMK A01 T10151037  RH  085%=      5-min Rain = 0
KCL1 080821Z 03009KT M02/M04 A3027 RMK A01 T10151037  RH  085%=      5-min Rain = 0
KCL1 080822Z 03010KT M02/M04 A3028 RMK A01 T10151038  RH  084%=      5-min Rain = 0
KCL1 080823Z 03009KT M02/M04 A3028 RMK A01 T10151038  RH  084%=      5-min Rain = 0
KCL1 080824Z 02007KT M02/M04 A3028 RMK A01 T10151039  RH  084%=      5-min Rain = 0
KCL1 080825Z 02009KT M02/M04 A3028 RMK A01 T10151039  RH  084%=      5-min Rain = 0
KCL1 080826Z 03011KT M02/M04 A3028 RMK A01 T10151039  RH  084%=      5-min Rain = 0
KCL1 080827Z 02010KT M02/M04 A3028 RMK A01 T10151039  RH  084%=      5-min Rain = 0
KCL1 080828Z 02010KT M02/M04 A3028 RMK A01 T10161039  RH  084%=      5-min Rain = 0
KCL1 080829Z 03008KT M02/M04 A3028 RMK A01 T10161038  RH  085%=      5-min Rain = 0
KCL1 080830Z 02008KT M02/M04 A3028 RMK A01 T10161038  RH  085%=      5-min Rain = 0
KCL1 080831Z 02006KT M02/M04 A3028 RMK A01 T10161038  RH  085%=      5-min Rain = 0
KCL1 080832Z 03007KT M02/M04 A3028 RMK A01 T10161038  RH  085%=      5-min Rain = 0
KCL1 080833Z 02007KT M02/M04 A3028 RMK A01 T10161038  RH  085%=      5-min Rain = 0
KCL1 080834Z 02007KT M02/M04 A3028 RMK A01 T10161039  RH  084%=      5-min Rain = 0
KCL1 080835Z 02006KT M02/M04 A3028 RMK A01 T10161039  RH  084%=      5-min Rain = 0
KCL1 080836Z 02006KT M02/M04 A3028 RMK A01 T10161040  RH  084%=      5-min Rain = 0
KCL1 080837Z 02007KT M02/M04 A3028 RMK A01 T10151039  RH  084%=      5-min Rain = 0
KCL1 080838Z 02006KT M02/M04 A3028 RMK A01 T10151039  RH  084%=      5-min Rain = 0
KCL1 080839Z 01008KT M02/M04 A3028 RMK A01 T10151039  RH  084%=      5-min Rain = 0
KCL1 080840Z 01008KT M02/M04 A3028 RMK A01 T10151040  RH  084%=      5-min Rain = 0
KCL1 080841Z 01007KT M02/M04 A3028 RMK A01 T10151040  RH  083%=      5-min Rain = 0
KCL1 080842Z 02007KT M02/M04 A3028 RMK A01 T10151040  RH  083%=      5-min Rain = 0
KCL1 080843Z 02006KT M02/M04 A3027 RMK A01 T10151040  RH  083%=      5-min Rain = 0
KCL1 080844Z 02007KT M02/M04 A3027 RMK A01 T10151039  RH  083%=      5-min Rain = 0
KCL1 080845Z 01008KT M02/M04 A3027 RMK A01 T10151039  RH  084%=      5-min Rain = 0
KCL1 080846Z 01008KT M02/M04 A3027 RMK A01 T10151039  RH  083%=      5-min Rain = 0
KCL1 080847Z 02007KT M01/M04 A3027 RMK A01 T10141039  RH  083%=      5-min Rain = 0
KCL1 080848Z 01008KT M01/M04 A3027 RMK A01 T10141039  RH  083%=      5-min Rain = 0
KCL1 080849Z 01010KT M01/M04 A3027 RMK A01 T10141039  RH  083%=      5-min Rain = 0
KCL1 080850Z 01011KT M01/M04 A3027 RMK A01 T10141040  RH  083%=      5-min Rain = 0
KCL1 080851Z 01011KT M01/M04 A3027 RMK A01 T10141040  RH  083%=      5-min Rain = 0
KCL1 080852Z 02010KT M01/M04 A3027 RMK A01 T10141040  RH  082%=      5-min Rain = 0
KCL1 080853Z 01010KT M01/M04 A3027 RMK A01 T10141040  RH  082%=      5-min Rain = 0
KCL1 080854Z 01011KT M01/M04 A3027 RMK A01 T10141040  RH  083%=      5-min Rain = 0
KCL1 080855Z 01009KT M01/M04 A3027 RMK A01 T10141041  RH  082%=      5-min Rain = 0
KCL1 080856Z 01009KT M01/M04 A3027 RMK A01 T10141041  RH  082%=      5-min Rain = 0
KCL1 080857Z 00011KT M01/M04 A3027 RMK A01 T10141041  RH  082%=      5-min Rain = 0
KCL1 080858Z 01009KT M01/M04 A3027 RMK A01 T10141041  RH  082%=      5-min Rain = 0
KCL1 080859Z 01010KT M02/M04 A3027 RMK A01 T10151042  RH  082%=      5-min Rain = 0
KCL1 080900Z 01009KT M02/M04 A3027 RMK A01 T10151042  RH  082%=      5-min Rain = 0
KCL1 080901Z 01008KT M02/M04 A3027 RMK A01 T10151041  RH  082%=      5-min Rain = 0
KCL1 080902Z 00007KT M02/M04 A3027 RMK A01 T10151041  RH  082%=      5-min Rain = 0
KCL1 080903Z 01007KT M02/M04 A3027 RMK A01 T10151041  RH  082%=      5-min Rain = 0
KCL1 080904Z 01009KT M02/M04 A3027 RMK A01 T10151041  RH  082%=      5-min Rain = 0
KCL1 080905Z 01009KT M02/M04 A3027 RMK A01 T10151042  RH  082%=      5-min Rain = 0
KCL1 080906Z 01009KT M02/M04 A3027 RMK A01 T10151041  RH  082%=      5-min Rain = 0
KCL1 080907Z 01009KT M02/M04 A3027 RMK A01 T10151041  RH  082%=      5-min Rain = 0
KCL1 080908Z 02010KT M01/M04 A3027 RMK A01 T10141040  RH  083%=      5-min Rain = 0
KCL1 080909Z 02011KT M02/M04 A3027 RMK A01 T10151041  RH  083%=      5-min Rain = 0
KCL1 080910Z 02010KT M02/M04 A3027 RMK A01 T10151040  RH  083%=      5-min Rain = 0
KCL1 080911Z 02009KT M02/M04 A3027 RMK A01 T10151040  RH  083%=      5-min Rain = 0
KCL1 080912Z 02009KT M02/M04 A3027 RMK A01 T10151040  RH  083%=      5-min Rain = 0
KCL1 080913Z 02010KT M02/M04 A3027 RMK A01 T10161040  RH  083%=      5-min Rain = 0
KCL1 080914Z 02009KT M02/M04 A3027 RMK A01 T10151040  RH  084%=      5-min Rain = 0
KCL1 080915Z 02009KT M02/M04 A3027 RMK A01 T10161040  RH  084%=      5-min Rain = 0
KCL1 080916Z 03008KT M02/M04 A3027 RMK A01 T10161039  RH  084%=      5-min Rain = 0
KCL1 080917Z 02008KT M02/M04 A3027 RMK A01 T10161039  RH  084%=      5-min Rain = 0
KCL1 080918Z 02007KT M02/M04 A3028 RMK A01 T10161039  RH  084%=      5-min Rain = 0
KCL1 080919Z 03006KT M02/M04 A3028 RMK A01 T10161039  RH  084%=      5-min Rain = 0
KCL1 080920Z 02007KT M02/M04 A3028 RMK A01 T10151039  RH  084%=      5-min Rain = 0
KCL1 080921Z 03007KT M02/M04 A3028 RMK A01 T10151038  RH  084%=      5-min Rain = 0
KCL1 080922Z 02008KT M02/M04 A3027 RMK A01 T10151039  RH  084%=      5-min Rain = 0
KCL1 080923Z 01007KT M02/M04 A3027 RMK A01 T10151039  RH  084%=      5-min Rain = 0
KCL1 080924Z 01009KT M02/M04 A3027 RMK A01 T10151039  RH  084%=      5-min Rain = 0
KCL1 080925Z 01009KT M02/M04 A3027 RMK A01 T10151040  RH  083%=      5-min Rain = 0
KCL1 080926Z 01011KT M02/M04 A3027 RMK A01 T10151041  RH  083%=      5-min Rain = 0
KCL1 080927Z 01010KT M02/M04 A3027 RMK A01 T10151041  RH  083%=      5-min Rain = 0
KCL1 080928Z 01009KT M02/M04 A3027 RMK A01 T10151040  RH  083%=      5-min Rain = 0
KCL1 080929Z 01009KT M02/M04 A3027 RMK A01 T10151040  RH  083%=      5-min Rain = 0
KCL1 080930Z 01010KT M02/M04 A3027 RMK A01 T10151040  RH  083%=      5-min Rain = 0
KCL1 080931Z 01009KT M02/M04 A3027 RMK A01 T10151040  RH  083%=      5-min Rain = 0
KCL1 080932Z 01010KT M02/M04 A3027 RMK A01 T10151040  RH  083%=      5-min Rain = 0
KCL1 080933Z 01008KT M02/M04 A3027 RMK A01 T10151040  RH  083%=      5-min Rain = 0
KCL1 080934Z 01009KT M02/M04 A3027 RMK A01 T10151040  RH  083%=      5-min Rain = 0
KCL1 080935Z 01007KT M02/M04 A3027 RMK A01 T10151040  RH  083%=      5-min Rain = 0
KCL1 080936Z 01007KT M02/M04 A3027 RMK A01 T10151041  RH  083%=      5-min Rain = 0
KCL1 080937Z 01009KT M02/M04 A3027 RMK A01 T10151041  RH  083%=      5-min Rain = 0
KCL1 080938Z 01009KT M02/M04 A3027 RMK A01 T10151041  RH  083%=      5-min Rain = 0
KCL1 080939Z 01009KT M02/M04 A3027 RMK A01 T10151041  RH  083%=      5-min Rain = 0
KCL1 080940Z 01009KT M02/M04 A3027 RMK A01 T10151041  RH  083%=      5-min Rain = 0
KCL1 080941Z 00009KT M02/M04 A3027 RMK A01 T10151041  RH  083%=      5-min Rain = 0
KCL1 080942Z 00008KT M02/M04 A3027 RMK A01 T10151041  RH  083%=      5-min Rain = 0
KCL1 080943Z 00008KT M02/M04 A3027 RMK A01 T10151040  RH  083%=      5-min Rain = 0
KCL1 080944Z 00007KT M01/M04 A3027 RMK A01 T10141040  RH  083%=      5-min Rain = 0
KCL1 080945Z 00007KT M02/M04 A3027 RMK A01 T10151041  RH  082%=      5-min Rain = 0
KCL1 080946Z 01007KT M02/M04 A3027 RMK A01 T10151041  RH  082%=      5-min Rain = 0
KCL1 080947Z 00008KT M02/M04 A3027 RMK A01 T10151041  RH  082%=      5-min Rain = 0
KCL1 080948Z 00008KT M02/M04 A3027 RMK A01 T10151041  RH  082%=      5-min Rain = 0
KCL1 080949Z 00008KT M02/M04 A3027 RMK A01 T10151041  RH  082%=      5-min Rain = 0
KCL1 080950Z 00008KT M02/M04 A3027 RMK A01 T10151041  RH  082%=      5-min Rain = 0
KCL1 080951Z 36008KT M02/M04 A3027 RMK A01 T10151041  RH  082%=      5-min Rain = 0
KCL1 080952Z 36008KT M02/M04 A3027 RMK A01 T10151041  RH  082%=      5-min Rain = 0
KCL1 080953Z 36008KT M02/M04 A3027 RMK A01 T10151041  RH  082%=      5-min Rain = 0
KCL1 080954Z 36006KT M02/M04 A3027 RMK A01 T10151041  RH  083%=      5-min Rain = 0
KCL1 080955Z 36007KT M02/M04 A3027 RMK A01 T10151040  RH  083%=      5-min Rain = 0
KCL1 080956Z 00007KT M02/M04 A3027 RMK A01 T10151040  RH  083%=      5-min Rain = 0
KCL1 080957Z 00007KT M02/M04 A3027 RMK A01 T10151040  RH  083%=      5-min Rain = 0
KCL1 080958Z 01007KT M02/M04 A3027 RMK A01 T10151040  RH  083%=      5-min Rain = 0
KCL1 080959Z 02007KT M02/M04 A3027 RMK A01 T10151039  RH  084%=      5-min Rain = 0
KCL1 081000Z 01009KT M02/M04 A3026 RMK A01 T10151038  RH  084%=      5-min Rain = 0
KCL1 081001Z 01008KT M02/M04 A3026 RMK A01 T10151038  RH  084%=      5-min Rain = 0
KCL1 081002Z 01008KT M02/M04 A3026 RMK A01 T10151038  RH  084%=      5-min Rain = 0
KCL1 081003Z 01007KT M02/M04 A3026 RMK A01 T10151038  RH  084%=      5-min Rain = 0
KCL1 081004Z 01006KT M02/M04 A3026 RMK A01 T10151037  RH  084%=      5-min Rain = 0
KCL1 081005Z 01005KT M02/M04 A3026 RMK A01 T10151037  RH  085%=      5-min Rain = 0
KCL1 081006Z 00006KT M02/M04 A3026 RMK A01 T10151037  RH  085%=      5-min Rain = 0
KCL1 081007Z 00006KT M02/M04 A3026 RMK A01 T10151037  RH  085%=      5-min Rain = 0
KCL1 081008Z 00009KT M02/M04 A3026 RMK A01 T10151038  RH  084%=      5-min Rain = 0
KCL1 081009Z 01007KT M02/M04 A3026 RMK A01 T10151038  RH  084%=      5-min Rain = 0
KCL1 081010Z 00007KT M02/M04 A3026 RMK A01 T10151038  RH  084%=      5-min Rain = 0
KCL1 081011Z 00007KT M02/M04 A3026 RMK A01 T10151038  RH  084%=      5-min Rain = 0
KCL1 081012Z 36009KT M02/M04 A3026 RMK A01 T10151038  RH  084%=      5-min Rain = 0
KCL1 081013Z 00011KT M02/M04 A3026 RMK A01 T10151039  RH  083%=      5-min Rain = 0
KCL1 081014Z 01009KT M02/M04 A3025 RMK A01 T10151040  RH  083%=      5-min Rain = 0
KCL1 081015Z 01008KT M02/M04 A3025 RMK A01 T10151040  RH  083%=      5-min Rain = 0
KCL1 081016Z 00009KT M02/M04 A3025 RMK A01 T10151040  RH  083%=      5-min Rain = 0
KCL1 081017Z 00009KT M02/M04 A3025 RMK A01 T10151040  RH  083%=      5-min Rain = 0
KCL1 081018Z 00009KT M02/M04 A3025 RMK A01 T10151040  RH  083%=      5-min Rain = 0
KCL1 081019Z 01009KT M02/M04 A3025 RMK A01 T10151040  RH  083%=      5-min Rain = 0
KCL1 081020Z 01010KT M02/M04 A3025 RMK A01 T10151040  RH  083%=      5-min Rain = 0
KCL1 081021Z 00011KT M02/M04 A3025 RMK A01 T10151041  RH  083%=      5-min Rain = 0
KCL1 081022Z 36012KT M02/M04 A3025 RMK A01 T10151041  RH  082%=      5-min Rain = 0
KCL1 081023Z 00010KT M02/M04 A3025 RMK A01 T10151040  RH  083%=      5-min Rain = 0
KCL1 081024Z 00009KT M02/M04 A3025 RMK A01 T10151040  RH  083%=      5-min Rain = 0
KCL1 081025Z 36010KT M02/M04 A3025 RMK A01 T10151039  RH  083%=      5-min Rain = 0
KCL1 081026Z 36011KT M02/M04 A3026 RMK A01 T10151040  RH  083%=      5-min Rain = 0
KCL1 081027Z 36008KT M02/M04 A3026 RMK A01 T10151040  RH  083%=      5-min Rain = 0
KCL1 081028Z 35009KT M02/M04 A3026 RMK A01 T10151040  RH  083%=      5-min Rain = 0
KCL1 081029Z 36008KT M02/M04 A3026 RMK A01 T10151040  RH  083%=      5-min Rain = 0
KCL1 081030Z 36008KT M02/M04 A3026 RMK A01 T10151040  RH  083%=      5-min Rain = 0
KCL1 081031Z 00009KT M02/M04 A3026 RMK A01 T10151041  RH  083%=      5-min Rain = 0
KCL1 081032Z 36007KT M02/M04 A3026 RMK A01 T10151041  RH  082%=      5-min Rain = 0
KCL1 081033Z 35007KT M02/M04 A3026 RMK A01 T10151041  RH  083%=      5-min Rain = 0
KCL1 081034Z 36009KT M02/M04 A3026 RMK A01 T10151040  RH  083%=      5-min Rain = 0
KCL1 081035Z 36009KT M02/M04 A3026 RMK A01 T10151041  RH  082%=      5-min Rain = 0
KCL1 081036Z 36010KT M02/M04 A3025 RMK A01 T10151041  RH  082%=      5-min Rain = 0
KCL1 081037Z 35009KT M02/M04 A3025 RMK A01 T10151041  RH  082%=      5-min Rain = 0
KCL1 081038Z 36009KT M02/M04 A3025 RMK A01 T10151041  RH  082%=      5-min Rain = 0
KCL1 081039Z 35010KT M02/M04 A3025 RMK A01 T10151041  RH  082%=      5-min Rain = 0
KCL1 081040Z 35008KT M02/M04 A3025 RMK A01 T10151042  RH  082%=      5-min Rain = 0
KCL1 081041Z 35008KT M02/M04 A3025 RMK A01 T10151041  RH  082%=      5-min Rain = 0
KCL1 081042Z 36006KT M02/M04 A3025 RMK A01 T10151041  RH  082%=      5-min Rain = 0
KCL1 081043Z 35006KT M02/M04 A3025 RMK A01 T10151041  RH  082%=      5-min Rain = 0
KCL1 081044Z 00007KT M01/M04 A3025 RMK A01 T10141041  RH  082%=      5-min Rain = 0
KCL1 081045Z 36009KT M01/M04 A3025 RMK A01 T10141041  RH  082%=      5-min Rain = 0
KCL1 081046Z 35008KT M01/M04 A3025 RMK A01 T10141041  RH  082%=      5-min Rain = 0
KCL1 081047Z 35008KT M01/M04 A3026 RMK A01 T10141041  RH  082%=      5-min Rain = 0
KCL1 081048Z 35007KT M01/M04 A3026 RMK A01 T10141041  RH  082%=      5-min Rain = 0
KCL1 081049Z 36007KT M01/M04 A3026 RMK A01 T10141041  RH  082%=      5-min Rain = 0
KCL1 081050Z 36006KT M01/M04 A3026 RMK A01 T10141041  RH  082%=      5-min Rain = 0
KCL1 081051Z 00008KT M01/M04 A3026 RMK A01 T10141040  RH  082%=      5-min Rain = 0
KCL1 081052Z 35006KT M01/M04 A3026 RMK A01 T10141041  RH  082%=      5-min Rain = 0
KCL1 081053Z 35008KT M01/M04 A3026 RMK A01 T10141041  RH  082%=      5-min Rain = 0
KCL1 081054Z 35008KT M01/M04 A3026 RMK A01 T10141041  RH  082%=      5-min Rain = 0
KCL1 081055Z 35008KT M01/M04 A3026 RMK A01 T10141041  RH  082%=      5-min Rain = 0
KCL1 081056Z 35009KT M01/M04 A3026 RMK A01 T10141041  RH  082%=      5-min Rain = 0
KCL1 081057Z 36008KT M01/M04 A3026 RMK A01 T10141041  RH  082%=      5-min Rain = 0
KCL1 081058Z 35008KT M01/M04 A3026 RMK A01 T10141041  RH  082%=      5-min Rain = 0
KCL1 081059Z 36009KT M01/M04 A3025 RMK A01 T10141041  RH  082%=      5-min Rain = 0
KCL1 081100Z 36009KT M01/M04 A3025 RMK A01 T10141041  RH  082%=      5-min Rain = 0
KCL1 081101Z 36010KT M01/M04 A3025 RMK A01 T10141041  RH  082%=      5-min Rain = 0
KCL1 081102Z 36009KT M01/M04 A3025 RMK A01 T10141041  RH  082%=      5-min Rain = 0
KCL1 081103Z 36008KT M01/M04 A3025 RMK A01 T10141041  RH  082%=      5-min Rain = 0
KCL1 081104Z 36009KT M01/M04 A3025 RMK A01 T10141041  RH  082%=      5-min Rain = 0
KCL1 081105Z 36007KT M01/M04 A3025 RMK A01 T10141040  RH  082%=      5-min Rain = 0
KCL1 081106Z 35009KT M01/M04 A3025 RMK A01 T10141040  RH  082%=      5-min Rain = 0
KCL1 081107Z 35008KT M01/M04 A3025 RMK A01 T10141040  RH  082%=      5-min Rain = 0
KCL1 081108Z 36010KT M01/M04 A3025 RMK A01 T10141041  RH  082%=      5-min Rain = 0
KCL1 081109Z 00008KT M01/M04 A3025 RMK A01 T10141041  RH  082%=      5-min Rain = 0
KCL1 081110Z 00008KT M01/M04 A3025 RMK A01 T10141041  RH  082%=      5-min Rain = 0
KCL1 081111Z 00010KT M01/M04 A3025 RMK A01 T10141040  RH  082%=      5-min Rain = 0
KCL1 081112Z 36010KT M02/M04 A3025 RMK A01 T10151041  RH  082%=      5-min Rain = 0
KCL1 081113Z 00008KT M02/M04 A3025 RMK A01 T10151042  RH  082%=      5-min Rain = 0
KCL1 081114Z 00009KT M02/M04 A3025 RMK A01 T10151042  RH  082%=      5-min Rain = 0
KCL1 081115Z 00007KT M02/M04 A3025 RMK A01 T10151041  RH  082%=      5-min Rain = 0
KCL1 081116Z 00008KT M02/M04 A3025 RMK A01 T10151041  RH  082%=      5-min Rain = 0
KCL1 081117Z 36009KT M02/M04 A3025 RMK A01 T10151041  RH  082%=      5-min Rain = 0
KCL1 081118Z 01008KT M02/M04 A3025 RMK A01 T10151041  RH  082%=      5-min Rain = 0
KCL1 081119Z 00009KT M02/M04 A3025 RMK A01 T10151041  RH  082%=      5-min Rain = 0
KCL1 081120Z 36008KT M02/M04 A3025 RMK A01 T10151041  RH  082%=      5-min Rain = 0
KCL1 081121Z 36008KT M02/M04 A3025 RMK A01 T10151041  RH  082%=      5-min Rain = 0
KCL1 081122Z 35008KT M02/M04 A3025 RMK A01 T10151041  RH  083%=      5-min Rain = 0
KCL1 081123Z 35009KT M02/M04 A3025 RMK A01 T10151040  RH  083%=      5-min Rain = 0
KCL1 081124Z 35008KT M02/M04 A3025 RMK A01 T10151040  RH  083%=      5-min Rain = 0
KCL1 081125Z 36011KT M02/M04 A3025 RMK A01 T10151040  RH  083%=      5-min Rain = 0
KCL1 081126Z 00010KT M01/M04 A3025 RMK A01 T10141040  RH  083%=      5-min Rain = 0
KCL1 081127Z 35011KT M02/M04 A3025 RMK A01 T10151040  RH  083%=      5-min Rain = 0
KCL1 081128Z 36012KT M02/M04 A3025 RMK A01 T10151040  RH  083%=      5-min Rain = 0
KCL1 081129Z 36010KT M02/M04 A3025 RMK A01 T10151040  RH  083%=      5-min Rain = 0
KCL1 081130Z 36010KT M02/M04 A3025 RMK A01 T10151040  RH  083%=      5-min Rain = 0
KCL1 081131Z 36011KT M02/M04 A3025 RMK A01 T10151040  RH  083%=      5-min Rain = 0
KCL1 081132Z 00011KT M02/M04 A3025 RMK A01 T10161040  RH  083%=      5-min Rain = 0
KCL1 081133Z 36009KT M02/M04 A3025 RMK A01 T10161040  RH  083%=      5-min Rain = 0
KCL1 081134Z 00010KT M02/M04 A3025 RMK A01 T10161040  RH  084%=      5-min Rain = 0
KCL1 081135Z 36008KT M02/M04 A3025 RMK A01 T10151039  RH  084%=      5-min Rain = 0
KCL1 081136Z 35011KT M02/M04 A3025 RMK A01 T10161040  RH  084%=      5-min Rain = 0
KCL1 081137Z 35012KT M02/M04 A3025 RMK A01 T10161040  RH  083%=      5-min Rain = 0
KCL1 081138Z 35011KT M02/M04 A3025 RMK A01 T10161041  RH  083%=      5-min Rain = 0
KCL1 081139Z 36012KT M02/M04 A3025 RMK A01 T10161040  RH  083%=      5-min Rain = 0
KCL1 081140Z 35011KT M02/M04 A3025 RMK A01 T10151039  RH  084%=      5-min Rain = 0
KCL1 081141Z 00010KT M02/M04 A3025 RMK A01 T10161039  RH  084%=      5-min Rain = 0
KCL1 081142Z 36011KT M02/M04 A3025 RMK A01 T10161039  RH  084%=      5-min Rain = 0
KCL1 081143Z 00010KT M02/M04 A3025 RMK A01 T10161038  RH  085%=      5-min Rain = 0
KCL1 081144Z 01010KT M02/M04 A3025 RMK A01 T10161038  RH  085%=      5-min Rain = 0
KCL1 081145Z 00010KT M02/M04 A3025 RMK A01 T10161038  RH  085%=      5-min Rain = 0
KCL1 081146Z 36011KT M02/M04 A3025 RMK A01 T10161038  RH  085%=      5-min Rain = 0
KCL1 081147Z 36009KT M02/M04 A3025 RMK A01 T10161039  RH  085%=      5-min Rain = 0
KCL1 081148Z 35009KT M02/M04 A3025 RMK A01 T10161040  RH  084%=      5-min Rain = 0
KCL1 081149Z 36010KT M02/M04 A3026 RMK A01 T10171041  RH  084%=      5-min Rain = 0
KCL1 081150Z 36010KT M02/M04 A3026 RMK A01 T10171041  RH  083%=      5-min Rain = 0
KCL1 081151Z 36011KT M02/M04 A3026 RMK A01 T10171042  RH  083%=      5-min Rain = 0
KCL1 081152Z 01011KT M02/M04 A3026 RMK A01 T10171043  RH  083%=      5-min Rain = 0
KCL1 081153Z 00011KT M02/M04 A3026 RMK A01 T10171043  RH  083%=      5-min Rain = 0
KCL1 081154Z 36010KT M02/M04 A3026 RMK A01 T10171043  RH  082%=      5-min Rain = 0
KCL1 081155Z 00011KT M02/M04 A3026 RMK A01 T10181044  RH  082%=      5-min Rain = 0
KCL1 081156Z 36012KT M02/M04 A3026 RMK A01 T10171044  RH  082%=      5-min Rain = 0
KCL1 081157Z 36009KT M02/M04 A3026 RMK A01 T10171044  RH  082%=      5-min Rain = 0
KCL1 081158Z 35010KT M02/M05 A3026 RMK A01 T10181045  RH  082%=      5-min Rain = 0
KCL1 081159Z 35010KT M02/M04 A3026 RMK A01 T10171044  RH  082%=      5-min Rain = 0
KCL1 081200Z 35009KT M02/M04 A3026 RMK A01 T10181044  RH  082%=      5-min Rain = 0
KCL1 081201Z 35011KT M02/M05 A3026 RMK A01 T10181045  RH  082%=      5-min Rain = 0
KCL1 081202Z 35012KT M02/M05 A3026 RMK A01 T10181045  RH  081%=      5-min Rain = 0
KCL1 081203Z 35011KT M02/M05 A3026 RMK A01 T10181045  RH  081%=      5-min Rain = 0
KCL1 081204Z 36010KT M02/M05 A3026 RMK A01 T10171045  RH  081%=      5-min Rain = 0
KCL1 081205Z 35010KT M02/M05 A3026 RMK A01 T10181045  RH  081%=      5-min Rain = 0
KCL1 081206Z 36010KT M02/M05 A3026 RMK A01 T10181046  RH  081%=      5-min Rain = 0
KCL1 081207Z 36010KT M02/M05 A3026 RMK A01 T10181045  RH  081%=      5-min Rain = 0
KCL1 081208Z 00009KT M02/M05 A3026 RMK A01 T10171045  RH  081%=      5-min Rain = 0
KCL1 081209Z 36009KT M02/M05 A3027 RMK A01 T10181045  RH  081%=      5-min Rain = 0
KCL1 081210Z 36008KT M02/M05 A3027 RMK A01 T10181045  RH  081%=      5-min Rain = 0
KCL1 081211Z 00010KT M02/M05 A3027 RMK A01 T10171045  RH  082%=      5-min Rain = 0
KCL1 081212Z 35008KT M02/M05 A3027 RMK A01 T10171045  RH  082%=      5-min Rain = 0
KCL1 081213Z 36010KT M02/M05 A3027 RMK A01 T10171045  RH  082%=      5-min Rain = 0
KCL1 081214Z 35010KT M02/M05 A3027 RMK A01 T10171045  RH  082%=      5-min Rain = 0
KCL1 081215Z 36008KT M02/M05 A3027 RMK A01 T10171045  RH  082%=      5-min Rain = 0
KCL1 081216Z 36008KT M02/M05 A3027 RMK A01 T10171045  RH  082%=      5-min Rain = 0
KCL1 081217Z 36009KT M02/M05 A3027 RMK A01 T10181045  RH  082%=      5-min Rain = 0
KCL1 081218Z 35010KT M02/M05 A3027 RMK A01 T10181045  RH  082%=      5-min Rain = 0
KCL1 081219Z 36010KT M02/M05 A3027 RMK A01 T10181045  RH  081%=      5-min Rain = 0
KCL1 081220Z 00010KT M02/M05 A3027 RMK A01 T10171045  RH  081%=      5-min Rain = 0
KCL1 081221Z 35009KT M02/M05 A3027 RMK A01 T10181046  RH  081%=      5-min Rain = 0
KCL1 081222Z 35008KT M02/M05 A3027 RMK A01 T10181045  RH  081%=      5-min Rain = 0
KCL1 081223Z 35008KT M02/M05 A3027 RMK A01 T10181046  RH  081%=      5-min Rain = 0
KCL1 081224Z 00007KT M02/M05 A3027 RMK A01 T10181045  RH  081%=      5-min Rain = 0
KCL1 081225Z 00011KT M02/M05 A3027 RMK A01 T10181045  RH  081%=      5-min Rain = 0
KCL1 081226Z 36011KT M02/M05 A3027 RMK A01 T10171046  RH  081%=      5-min Rain = 0
KCL1 081227Z 36010KT M02/M05 A3027 RMK A01 T10181046  RH  081%=      5-min Rain = 0
KCL1 081228Z 00009KT M02/M05 A3027 RMK A01 T10181047  RH  081%=      5-min Rain = 0
KCL1 081229Z 00011KT M02/M05 A3027 RMK A01 T10181046  RH  081%=      5-min Rain = 0
KCL1 081230Z 36009KT M02/M05 A3027 RMK A01 T10181047  RH  081%=      5-min Rain = 0
KCL1 081231Z 36007KT M02/M05 A3027 RMK A01 T10181046  RH  081%=      5-min Rain = 0
KCL1 081232Z 35008KT M02/M05 A3027 RMK A01 T10181046  RH  082%=      5-min Rain = 0
KCL1 081233Z 00011KT M02/M05 A3026 RMK A01 T10181046  RH  081%=      5-min Rain = 0
KCL1 081234Z 00011KT M02/M05 A3026 RMK A01 T10181046  RH  081%=      5-min Rain = 0
KCL1 081235Z 00011KT M02/M05 A3026 RMK A01 T10181046  RH  081%=      5-min Rain = 0
KCL1 081236Z 35011KT M02/M05 A3026 RMK A01 T10181047  RH  081%=      5-min Rain = 0
KCL1 081237Z 00012KT M02/M05 A3026 RMK A01 T10191047  RH  081%=      5-min Rain = 0
KCL1 081238Z 00010KT M02/M05 A3026 RMK A01 T10191047  RH  081%=      5-min Rain = 0
KCL1 081239Z 36011KT M02/M05 A3026 RMK A01 T10181046  RH  081%=      5-min Rain = 0
KCL1 081240Z 36011KT M02/M05 A3026 RMK A01 T10181046  RH  081%=      5-min Rain = 0
KCL1 081241Z 00011KT M02/M05 A3026 RMK A01 T10181046  RH  081%=      5-min Rain = 0
KCL1 081242Z 00012KT M02/M05 A3026 RMK A01 T10181046  RH  081%=      5-min Rain = 0
KCL1 081243Z 00008KT M02/M05 A3026 RMK A01 T10181046  RH  081%=      5-min Rain = 0
KCL1 081244Z 01008KT M02/M05 A3026 RMK A01 T10181046  RH  081%=      5-min Rain = 0
KCL1 081245Z 00009KT M02/M05 A3026 RMK A01 T10191046  RH  081%=      5-min Rain = 0
KCL1 081246Z 00007KT M02/M05 A3026 RMK A01 T10181046  RH  081%=      5-min Rain = 0
KCL1 081247Z 00012KT M02/M05 A3026 RMK A01 T10181046  RH  081%=      5-min Rain = 0
KCL1 081248Z 36011KT M02/M05 A3026 RMK A01 T10181047  RH  081%=      5-min Rain = 0
KCL1 081249Z 00011KT M02/M05 A3026 RMK A01 T10181047  RH  081%=      5-min Rain = 0
KCL1 081250Z 00010KT M02/M05 A3026 RMK A01 T10191047  RH  081%=      5-min Rain = 0
KCL1 081251Z 00010KT M02/M05 A3026 RMK A01 T10181047  RH  081%=      5-min Rain = 0
KCL1 081252Z 00009KT M02/M05 A3026 RMK A01 T10181047  RH  081%=      5-min Rain = 0
KCL1 081253Z 00007KT M02/M05 A3026 RMK A01 T10181046  RH  081%=      5-min Rain = 0
KCL1 081254Z 00009KT M02/M05 A3026 RMK A01 T10181046  RH  081%=      5-min Rain = 0
KCL1 081255Z 36009KT M02/M05 A3026 RMK A01 T10181046  RH  081%=      5-min Rain = 0
KCL1 081256Z 01008KT M02/M05 A3027 RMK A01 T10181047  RH  081%=      5-min Rain = 0
KCL1 081257Z 00008KT M02/M05 A3027 RMK A01 T10191047  RH  081%=      5-min Rain = 0
KCL1 081258Z 36011KT M02/M05 A3026 RMK A01 T10181048  RH  080%=      5-min Rain = 0
KCL1 081259Z 01009KT M02/M05 A3026 RMK A01 T10191049  RH  079%=      5-min Rain = 0
KCL1 081300Z 00009KT M02/M05 A3026 RMK A01 T10181049  RH  079%=      5-min Rain = 0
KCL1 081301Z 01008KT M02/M05 A3026 RMK A01 T10181050  RH  079%=      5-min Rain = 0
KCL1 081302Z 01009KT M02/M05 A3026 RMK A01 T10181050  RH  079%=      5-min Rain = 0
KCL1 081303Z 00013KT M02/M05 A3026 RMK A01 T10191051  RH  079%=      5-min Rain = 0
KCL1 081304Z 01011KT M02/M05 A3026 RMK A01 T10191052  RH  078%=      5-min Rain = 0
KCL1 081305Z 00011KT M02/M05 A3026 RMK A01 T10191052  RH  078%=      5-min Rain = 0
KCL1 081306Z 01012KT M02/M05 A3026 RMK A01 T10191053  RH  078%=      5-min Rain = 0
KCL1 081307Z 01011KT M02/M05 A3026 RMK A01 T10191054  RH  077%=      5-min Rain = 0
KCL1 081308Z 01010KT M02/M05 A3026 RMK A01 T10191053  RH  078%=      5-min Rain = 0
KCL1 081309Z 01010KT M02/M05 A3026 RMK A01 T10191053  RH  077%=      5-min Rain = 0
KCL1 081310Z 01008KT M02/M05 A3026 RMK A01 T10191053  RH  078%=      5-min Rain = 0
KCL1 081311Z 01010KT M02/M05 A3027 RMK A01 T10191053  RH  078%=      5-min Rain = 0
KCL1 081312Z 01011KT M02/M05 A3027 RMK A01 T10191053  RH  078%=      5-min Rain = 0
KCL1 081313Z 01011KT M02/M05 A3027 RMK A01 T10191054  RH  077%=      5-min Rain = 0
KCL1 081314Z 01009KT M02/M05 A3027 RMK A01 T10191054  RH  077%=      5-min Rain = 0
KCL1 081315Z 01010KT M02/M05 A3027 RMK A01 T10191054  RH  077%=      5-min Rain = 0
KCL1 081316Z 01010KT M02/M06 A3027 RMK A01 T10191055  RH  077%=      5-min Rain = 0
KCL1 081317Z 00010KT M02/M06 A3027 RMK A01 T10191055  RH  077%=      5-min Rain = 0
KCL1 081318Z 36009KT M02/M06 A3027 RMK A01 T10191055  RH  077%=      5-min Rain = 0
KCL1 081319Z 01009KT M02/M05 A3027 RMK A01 T10191054  RH  077%=      5-min Rain = 0
KCL1 081320Z 00009KT M02/M05 A3027 RMK A01 T10191054  RH  077%=      5-min Rain = 0
KCL1 081321Z 01010KT M02/M06 A3027 RMK A01 T10191055  RH  077%=      5-min Rain = 0
KCL1 081322Z 01008KT M02/M06 A3027 RMK A01 T10191055  RH  077%=      5-min Rain = 0
KCL1 081323Z 00011KT M02/M06 A3027 RMK A01 T10191055  RH  077%=      5-min Rain = 0
KCL1 081324Z 00011KT M02/M06 A3027 RMK A01 T10191056  RH  076%=      5-min Rain = 0
KCL1 081325Z 00012KT M02/M06 A3027 RMK A01 T10191056  RH  076%=      5-min Rain = 0
KCL1 081326Z 00009KT M02/M06 A3027 RMK A01 T10191056  RH  076%=      5-min Rain = 0
KCL1 081327Z 00010KT M02/M06 A3027 RMK A01 T10201057  RH  076%=      5-min Rain = 0
KCL1 081328Z 01011KT M02/M06 A3027 RMK A01 T10191056  RH  076%=      5-min Rain = 0
KCL1 081329Z 36010KT M02/M06 A3027 RMK A01 T10191057  RH  075%=      5-min Rain = 0
KCL1 081330Z 36012KT M02/M06 A3027 RMK A01 T10191057  RH  075%=      5-min Rain = 0
KCL1 081331Z 01011KT M02/M06 A3027 RMK A01 T10191058  RH  075%=      5-min Rain = 0
KCL1 081332Z 00012KT M02/M06 A3027 RMK A01 T10191058  RH  075%=      5-min Rain = 0
KCL1 081333Z 36012KT M02/M06 A3027 RMK A01 T10191059  RH  074%=      5-min Rain = 0
KCL1 081334Z 00012KT M02/M06 A3027 RMK A01 T10191059  RH  074%=      5-min Rain = 0
KCL1 081335Z 00009KT M02/M06 A3027 RMK A01 T10191059  RH  074%=      5-min Rain = 0
KCL1 081336Z 00011KT M02/M06 A3027 RMK A01 T10191059  RH  074%=      5-min Rain = 0
KCL1 081337Z 00010KT M02/M06 A3028 RMK A01 T10191059  RH  074%=      5-min Rain = 0
KCL1 081338Z 36011KT M02/M06 A3028 RMK A01 T10191059  RH  074%=      5-min Rain = 0
KCL1 081339Z 01010KT M02/M06 A3028 RMK A01 T10191060  RH  074%=      5-min Rain = 0
KCL1 081340Z 00011KT M02/M06 A3028 RMK A01 T10191060  RH  074%=      5-min Rain = 0
KCL1 081341Z 01009KT M02/M06 A3028 RMK A01 T10201061  RH  073%=      5-min Rain = 0
KCL1 081342Z 01010KT M02/M06 A3028 RMK A01 T10191060  RH  073%=      5-min Rain = 0
KCL1 081343Z 01013KT M02/M06 A3028 RMK A01 T10191061  RH  073%=      5-min Rain = 0
KCL1 081344Z 00010KT M02/M06 A3028 RMK A01 T10191062  RH  073%=      5-min Rain = 0
KCL1 081345Z 01011KT M02/M06 A3028 RMK A01 T10191062  RH  073%=      5-min Rain = 0
KCL1 081346Z 00008KT M02/M06 A3028 RMK A01 T10191062  RH  073%=      5-min Rain = 0
KCL1 081347Z 00009KT M02/M06 A3028 RMK A01 T10191062  RH  073%=      5-min Rain = 0
KCL1 081348Z 00010KT M02/M06 A3028 RMK A01 T10191062  RH  073%=      5-min Rain = 0
KCL1 081349Z 01010KT M02/M06 A3028 RMK A01 T10201062  RH  072%=      5-min Rain = 0
KCL1 081350Z 01011KT M02/M06 A3028 RMK A01 T10201063  RH  072%=      5-min Rain = 0
KCL1 081351Z 01009KT M02/M06 A3028 RMK A01 T10201064  RH  072%=      5-min Rain = 0
KCL1 081352Z 00010KT M02/M06 A3028 RMK A01 T10201063  RH  072%=      5-min Rain = 0
KCL1 081353Z 01010KT M02/M06 A3028 RMK A01 T10201063  RH  072%=      5-min Rain = 0
KCL1 081354Z 01010KT M02/M06 A3028 RMK A01 T10201064  RH  072%=      5-min Rain = 0
KCL1 081355Z 01008KT M02/M06 A3028 RMK A01 T10201064  RH  072%=      5-min Rain = 0
KCL1 081356Z 00009KT M02/M06 A3028 RMK A01 T10201063  RH  072%=      5-min Rain = 0
KCL1 081357Z 00010KT M02/M06 A3028 RMK A01 T10201063  RH  072%=      5-min Rain = 0
KCL1 081358Z 01009KT M02/M06 A3028 RMK A01 T10201064  RH  072%=      5-min Rain = 0
KCL1 081359Z 00009KT M02/M06 A3028 RMK A01 T10201064  RH  072%=      5-min Rain = 0
KCL1 081400Z 00009KT M02/M06 A3028 RMK A01 T10201064  RH  072%=      5-min Rain = 0
KCL1 081401Z 36008KT M02/M06 A3028 RMK A01 T10201063  RH  072%=      5-min Rain = 0
KCL1 081402Z 35008KT M02/M06 A3028 RMK A01 T10201064  RH  072%=      5-min Rain = 0
KCL1 081403Z 36010KT M02/M07 A3028 RMK A01 T10201065  RH  072%=      5-min Rain = 0
KCL1 081404Z 00008KT M02/M07 A3028 RMK A01 T10201065  RH  071%=      5-min Rain = 0
KCL1 081405Z 36008KT M02/M07 A3028 RMK A01 T10201065  RH  071%=      5-min Rain = 0
KCL1 081406Z 36010KT M02/M06 A3028 RMK A01 T10201064  RH  071%=      5-min Rain = 0
KCL1 081407Z 36010KT M02/M07 A3028 RMK A01 T10201065  RH  071%=      5-min Rain = 0
KCL1 081408Z 36009KT M02/M07 A3029 RMK A01 T10201066  RH  071%=      5-min Rain = 0
KCL1 081409Z 36008KT M02/M07 A3029 RMK A01 T10201066  RH  071%=      5-min Rain = 0
KCL1 081410Z 00009KT M02/M07 A3029 RMK A01 T10201066  RH  071%=      5-min Rain = 0
KCL1 081411Z 00011KT M02/M07 A3029 RMK A01 T10201067  RH  070%=      5-min Rain = 0
KCL1 081412Z 36009KT M02/M07 A3029 RMK A01 T10201068  RH  070%=      5-min Rain = 0
KCL1 081413Z 36009KT M02/M07 A3029 RMK A01 T10201068  RH  070%=      5-min Rain = 0
KCL1 081414Z 36012KT M02/M07 A3029 RMK A01 T10201069  RH  069%=      5-min Rain = 0
KCL1 081415Z 35011KT M02/M07 A3029 RMK A01 T10201071  RH  068%=      5-min Rain = 0
KCL1 081416Z 35011KT M02/M07 A3029 RMK A01 T10201072  RH  068%=      5-min Rain = 0
KCL1 081417Z 36011KT M02/M07 A3029 RMK A01 T10201073  RH  067%=      5-min Rain = 0
KCL1 081418Z 35011KT M02/M07 A3029 RMK A01 T10201074  RH  067%=      5-min Rain = 0
KCL1 081419Z 35012KT M02/M08 A3029 RMK A01 T10201075  RH  066%=      5-min Rain = 0
KCL1 081420Z 36011KT M02/M08 A3029 RMK A01 T10211075  RH  066%=      5-min Rain = 0
KCL1 081421Z 35011KT M02/M08 A3029 RMK A01 T10211076  RH  066%=      5-min Rain = 0
KCL1 081422Z 36011KT M02/M08 A3029 RMK A01 T10211076  RH  066%=      5-min Rain = 0
KCL1 081423Z 36011KT M02/M08 A3029 RMK A01 T10211077  RH  066%=      5-min Rain = 0
KCL1 081424Z 36011KT M02/M08 A3029 RMK A01 T10211076  RH  066%=      5-min Rain = 0
KCL1 081425Z 36011KT M02/M08 A3029 RMK A01 T10211077  RH  065%=      5-min Rain = 0
KCL1 081426Z 36010KT M02/M08 A3029 RMK A01 T10211077  RH  065%=      5-min Rain = 0
KCL1 081427Z 36011KT M02/M08 A3029 RMK A01 T10201077  RH  065%=      5-min Rain = 0
KCL1 081428Z 36011KT M02/M08 A3029 RMK A01 T10211078  RH  065%=      5-min Rain = 0
KCL1 081429Z 36011KT M02/M08 A3029 RMK A01 T10211079  RH  064%=      5-min Rain = 0
KCL1 081430Z 36012KT M02/M08 A3029 RMK A01 T10211080  RH  064%=      5-min Rain = 0
KCL1 081431Z 00012KT M02/M08 A3029 RMK A01 T10211081  RH  063%=      5-min Rain = 0
KCL1 081432Z 00011KT M02/M08 A3029 RMK A01 T10211081  RH  063%=      5-min Rain = 0
KCL1 081433Z 00010KT M02/M08 A3029 RMK A01 T10211081  RH  063%=      5-min Rain = 0
KCL1 081434Z 35010KT M02/M08 A3029 RMK A01 T10211081  RH  064%=      5-min Rain = 0
KCL1 081435Z 36009KT M02/M08 A3029 RMK A01 T10201081  RH  063%=      5-min Rain = 0
KCL1 081436Z 00011KT M02/M08 A3029 RMK A01 T10201081  RH  063%=      5-min Rain = 0
KCL1 081437Z 35009KT M02/M08 A3029 RMK A01 T10201082  RH  063%=      5-min Rain = 0
KCL1 081438Z 35008KT M02/M08 A3029 RMK A01 T10201081  RH  063%=      5-min Rain = 0
KCL1 081439Z 35010KT M02/M08 A303 RMK A01 T10201081  RH  063%=      5-min Rain = 0
KCL1 081440Z 36008KT M02/M08 A303 RMK A01 T10201082  RH  063%=      5-min Rain = 0
KCL1 081441Z 36008KT M02/M08 A303 RMK A01 T10201082  RH  063%=      5-min Rain = 0
KCL1 081442Z 35011KT M02/M08 A303 RMK A01 T10201082  RH  062%=      5-min Rain = 0
KCL1 081443Z 36011KT M02/M09 A303 RMK A01 T10201085  RH  061%=      5-min Rain = 0
KCL1 081444Z 36011KT M02/M09 A303 RMK A01 T10201086  RH  060%=      5-min Rain = 0
KCL1 081445Z 01010KT M02/M09 A303 RMK A01 T10201087  RH  060%=      5-min Rain = 0
KCL1 081446Z 00010KT M02/M09 A303 RMK A01 T10201088  RH  060%=      5-min Rain = 0
KCL1 081447Z 35009KT M02/M09 A303 RMK A01 T10201087  RH  060%=      5-min Rain = 0
KCL1 081448Z 00010KT M02/M09 A303 RMK A01 T10201088  RH  060%=      5-min Rain = 0
KCL1 081449Z 00011KT M02/M09 A303 RMK A01 T10201089  RH  059%=      5-min Rain = 0
KCL1 081450Z 00010KT M02/M09 A303 RMK A01 T10201091  RH  058%=      5-min Rain = 0
KCL1 081451Z 00009KT M02/M09 A303 RMK A01 T10201090  RH  058%=      5-min Rain = 0
KCL1 081452Z 01009KT M02/M09 A303 RMK A01 T10201090  RH  059%=      5-min Rain = 0
KCL1 081453Z 00008KT M02/M09 A303 RMK A01 T10201090  RH  059%=      5-min Rain = 0
KCL1 081454Z 36009KT M02/M09 A303 RMK A01 T10191089  RH  059%=      5-min Rain = 0
KCL1 081455Z 00010KT M02/M09 A303 RMK A01 T10191089  RH  059%=      5-min Rain = 0
KCL1 081456Z 00009KT M02/M09 A303 RMK A01 T10191091  RH  058%=      5-min Rain = 0
KCL1 081457Z 00011KT M02/M09 A303 RMK A01 T10191092  RH  058%=      5-min Rain = 0
KCL1 081458Z 01011KT M02/M09 A303 RMK A01 T10191093  RH  057%=      5-min Rain = 0
KCL1 081459Z 01009KT M02/M09 A303 RMK A01 T10191093  RH  057%=      5-min Rain = 0
KCL1 081500Z 00009KT M02/M09 A303 RMK A01 T10201094  RH  057%=      5-min Rain = 0
KCL1 081501Z 36010KT M02/M09 A303 RMK A01 T10191093  RH  057%=      5-min Rain = 0
KCL1 081502Z 35010KT M02/M09 A303 RMK A01 T10191094  RH  057%=      5-min Rain = 0
KCL1 081503Z 35010KT M02/M09 A303 RMK A01 T10191094  RH  057%=      5-min Rain = 0
KCL1 081504Z 35009KT M02/M09 A303 RMK A01 T10191093  RH  057%=      5-min Rain = 0
KCL1 081505Z 36010KT M02/M09 A303 RMK A01 T10191093  RH  057%=      5-min Rain = 0
KCL1 081506Z 36010KT M02/M09 A303 RMK A01 T10191094  RH  056%=      5-min Rain = 0
KCL1 081507Z 00010KT M02/M09 A303 RMK A01 T10191094  RH  056%=      5-min Rain = 0
KCL1 081508Z 36008KT M02/M09 A303 RMK A01 T10191094  RH  056%=      5-min Rain = 0
KCL1 081509Z 36009KT M02/M09 A303 RMK A01 T10191094  RH  057%=      5-min Rain = 0
KCL1 081510Z 00010KT M02/M09 A303 RMK A01 T10181094  RH  056%=      5-min Rain = 0
KCL1 081511Z 00009KT M02/M10 A303 RMK A01 T10191095  RH  056%=      5-min Rain = 0
KCL1 081512Z 00009KT M02/M10 A303 RMK A01 T10181095  RH  056%=      5-min Rain = 0
KCL1 081513Z 01008KT M02/M09 A303 RMK A01 T10191094  RH  056%=      5-min Rain = 0
KCL1 081514Z 00009KT M02/M09 A303 RMK A01 T10181093  RH  056%=      5-min Rain = 0
KCL1 081515Z 01008KT M02/M09 A303 RMK A01 T10181093  RH  056%=      5-min Rain = 0
KCL1 081516Z 01008KT M02/M09 A3031 RMK A01 T10181093  RH  056%=      5-min Rain = 0
KCL1 081517Z 01009KT M02/M09 A3031 RMK A01 T10171093  RH  056%=      5-min Rain = 0
KCL1 081518Z 01009KT M02/M09 A3031 RMK A01 T10181093  RH  056%=      5-min Rain = 0
KCL1 081519Z 01009KT M02/M09 A3031 RMK A01 T10181093  RH  056%=      5-min Rain = 0
KCL1 081520Z 00009KT M02/M09 A3031 RMK A01 T10171093  RH  056%=      5-min Rain = 0
KCL1 081521Z 36011KT M02/M09 A3031 RMK A01 T10171092  RH  057%=      5-min Rain = 0
KCL1 081522Z 00010KT M02/M09 A3031 RMK A01 T10171093  RH  056%=      5-min Rain = 0
KCL1 081523Z 00009KT M02/M09 A3031 RMK A01 T10171093  RH  056%=      5-min Rain = 0
KCL1 081524Z 00009KT M02/M09 A3031 RMK A01 T10171093  RH  056%=      5-min Rain = 0
KCL1 081525Z 35008KT M02/M09 A3031 RMK A01 T10171093  RH  056%=      5-min Rain = 0
KCL1 081526Z 36009KT M02/M09 A3031 RMK A01 T10171092  RH  057%=      5-min Rain = 0
KCL1 081527Z 00008KT M02/M09 A3031 RMK A01 T10171091  RH  057%=      5-min Rain = 0
KCL1 081528Z 00009KT M02/M09 A3031 RMK A01 T10171092  RH  057%=      5-min Rain = 0
KCL1 081529Z 36009KT M02/M09 A3031 RMK A01 T10171092  RH  056%=      5-min Rain = 0
KCL1 081530Z 36008KT M02/M09 A3031 RMK A01 T10171092  RH  056%=      5-min Rain = 0
KCL1 081531Z 35008KT M02/M09 A3031 RMK A01 T10161092  RH  056%=      5-min Rain = 0
KCL1 081532Z 35008KT M02/M09 A3031 RMK A01 T10171092  RH  056%=      5-min Rain = 0
KCL1 081533Z 35007KT M02/M09 A3031 RMK A01 T10161092  RH  057%=      5-min Rain = 0
KCL1 081534Z 36007KT M02/M09 A3031 RMK A01 T10161091  RH  057%=      5-min Rain = 0
KCL1 081535Z 35006KT M02/M09 A3031 RMK A01 T10161090  RH  057%=      5-min Rain = 0
KCL1 081536Z 35008KT M02/M09 A3031 RMK A01 T10151089  RH  057%=      5-min Rain = 0
KCL1 081537Z 36008KT M02/M09 A3031 RMK A01 T10151091  RH  056%=      5-min Rain = 0
KCL1 081538Z 01009KT M02/M09 A3031 RMK A01 T10151091  RH  056%=      5-min Rain = 0
KCL1 081539Z 00008KT M02/M09 A3031 RMK A01 T10161092  RH  056%=      5-min Rain = 0
KCL1 081540Z 00007KT M02/M09 A3031 RMK A01 T10161091  RH  056%=      5-min Rain = 0
KCL1 081541Z 00008KT M02/M09 A3031 RMK A01 T10161091  RH  057%=      5-min Rain = 0
KCL1 081542Z 36008KT M02/M09 A3031 RMK A01 T10161090  RH  057%=      5-min Rain = 0
KCL1 081543Z 01007KT M02/M09 A3031 RMK A01 T10151090  RH  057%=      5-min Rain = 0
KCL1 081544Z 00008KT M02/M09 A3031 RMK A01 T10151090  RH  057%=      5-min Rain = 0
KCL1 081545Z 00008KT M02/M09 A3031 RMK A01 T10151090  RH  057%=      5-min Rain = 0
KCL1 081546Z 01009KT M02/M09 A3031 RMK A01 T10151090  RH  057%=      5-min Rain = 0
KCL1 081547Z 01007KT M02/M09 A3031 RMK A01 T10151091  RH  056%=      5-min Rain = 0
KCL1 081548Z 01006KT M02/M09 A3031 RMK A01 T10151090  RH  057%=      5-min Rain = 0
KCL1 081549Z 02007KT M01/M09 A3031 RMK A01 T10141088  RH  057%=      5-min Rain = 0
KCL1 081550Z 02008KT M01/M09 A3031 RMK A01 T10131089  RH  057%=      5-min Rain = 0
KCL1 081551Z 02009KT M01/M09 A3031 RMK A01 T10131089  RH  056%=      5-min Rain = 0
KCL1 081552Z 01008KT M01/M09 A3031 RMK A01 T10131089  RH  056%=      5-min Rain = 0
KCL1 081553Z 01009KT M01/M09 A3031 RMK A01 T10131089  RH  056%=      5-min Rain = 0
KCL1 081554Z 02008KT M01/M09 A3031 RMK A01 T10121089  RH  056%=      5-min Rain = 0
KCL1 081555Z 01009KT M01/M09 A3031 RMK A01 T10121088  RH  056%=      5-min Rain = 0
KCL1 081556Z 01009KT M01/M09 A3031 RMK A01 T10111088  RH  056%=      5-min Rain = 0
KCL1 081557Z 02007KT M01/M09 A3031 RMK A01 T10111089  RH  056%=      5-min Rain = 0
KCL1 081558Z 02006KT M01/M09 A3031 RMK A01 T10111088  RH  056%=      5-min Rain = 0
KCL1 081559Z 02008KT M01/M09 A3031 RMK A01 T10101088  RH  056%=      5-min Rain = 0
KCL1 081600Z 02008KT M01/M09 A3031 RMK A01 T10101087  RH  056%=      5-min Rain = 0
KCL1 081601Z 02009KT M01/M09 A3031 RMK A01 T10101087  RH  056%=      5-min Rain = 0
KCL1 081602Z 02010KT M01/M09 A3031 RMK A01 T10101088  RH  055%=      5-min Rain = 0
KCL1 081603Z 02007KT M01/M09 A3031 RMK A01 T10101088  RH  055%=      5-min Rain = 0
KCL1 081604Z 02008KT M01/M09 A3031 RMK A01 T10101087  RH  056%=      5-min Rain = 0
KCL1 081605Z 02009KT M01/M09 A3031 RMK A01 T10101088  RH  056%=      5-min Rain = 0
KCL1 081606Z 01009KT M01/M09 A3031 RMK A01 T10091087  RH  056%=      5-min Rain = 0
KCL1 081607Z 01010KT M01/M09 A3031 RMK A01 T10091087  RH  055%=      5-min Rain = 0
KCL1 081608Z 01009KT M01/M09 A3031 RMK A01 T10091087  RH  056%=      5-min Rain = 0
KCL1 081609Z 00008KT M01/M09 A3031 RMK A01 T10091086  RH  056%=      5-min Rain = 0
KCL1 081610Z 01008KT M01/M09 A3031 RMK A01 T10081086  RH  056%=      5-min Rain = 0
KCL1 081611Z 01007KT M01/M08 A3031 RMK A01 T10071084  RH  056%=      5-min Rain = 0
KCL1 081612Z 00009KT M01/M08 A3031 RMK A01 T10061084  RH  056%=      5-min Rain = 0
KCL1 081613Z 01009KT M01/M09 A3031 RMK A01 T10061086  RH  055%=      5-min Rain = 0
KCL1 081614Z 01007KT M01/M09 A3031 RMK A01 T10071087  RH  055%=      5-min Rain = 0
KCL1 081615Z 01006KT M01/M08 A3031 RMK A01 T10061084  RH  056%=      5-min Rain = 0
KCL1 081616Z 02006KT M01/M08 A3031 RMK A01 T10051082  RH  056%=      5-min Rain = 0
KCL1 081617Z 01008KT M00/M08 A3031 RMK A01 T10041081  RH  056%=      5-min Rain = 0
KCL1 081618Z 01008KT M00/M08 A3031 RMK A01 T10041084  RH  055%=      5-min Rain = 0
KCL1 081619Z 36009KT M01/M09 A3031 RMK A01 T10061085  RH  055%=      5-min Rain = 0
KCL1 081620Z 00009KT M01/M09 A3031 RMK A01 T10061085  RH  055%=      5-min Rain = 0
KCL1 081621Z 01006KT M01/M09 A3031 RMK A01 T10061085  RH  055%=      5-min Rain = 0
KCL1 081622Z 01008KT M01/M08 A3031 RMK A01 T10061084  RH  055%=      5-min Rain = 0
KCL1 081623Z 01006KT M01/M09 A3031 RMK A01 T10051085  RH  055%=      5-min Rain = 0
KCL1 081624Z 01006KT M01/M08 A3031 RMK A01 T10051084  RH  055%=      5-min Rain = 0
KCL1 081625Z 01009KT M00/M08 A3031 RMK A01 T10041083  RH  055%=      5-min Rain = 0
KCL1 081626Z 00010KT M00/M09 A3031 RMK A01 T10041086  RH  054%=      5-min Rain = 0
KCL1 081627Z 00008KT M00/M09 A3031 RMK A01 T10041085  RH  054%=      5-min Rain = 0
KCL1 081628Z 36010KT M00/M08 A3031 RMK A01 T10041084  RH  055%=      5-min Rain = 0
KCL1 081629Z 36010KT M00/M08 A3031 RMK A01 T10031084  RH  055%=      5-min Rain = 0
KCL1 081630Z 00009KT M00/M08 A3031 RMK A01 T10021083  RH  055%=      5-min Rain = 0
KCL1 081631Z 01007KT M00/M08 A3031 RMK A01 T10021084  RH  054%=      5-min Rain = 0
KCL1 081632Z 01009KT M00/M08 A3031 RMK A01 T10021084  RH  054%=      5-min Rain = 0
KCL1 081633Z 00009KT M00/M08 A3031 RMK A01 T10011084  RH  054%=      5-min Rain = 0
KCL1 081634Z 36009KT M00/M08 A3031 RMK A01 T10011084  RH  054%=      5-min Rain = 0
KCL1 081635Z 35009KT 00/08 A3031 RMK A01 T00-00-83  RH  054%=      5-min Rain = 0
KCL1 081636Z 01008KT 00/08 A3031 RMK A01 T00000-82  RH  054%=      5-min Rain = 0
KCL1 081637Z 00010KT 00/M08 A3031 RMK A01 T00021079  RH  055%=      5-min Rain = 0
KCL1 081638Z 00010KT 00/M08 A3031 RMK A01 T00011082  RH  053%=      5-min Rain = 0
KCL1 081639Z 01007KT 00/M08 A3031 RMK A01 T00011082  RH  054%=      5-min Rain = 0
KCL1 081640Z 00008KT 00/M08 A3031 RMK A01 T00011081  RH  054%=      5-min Rain = 0
KCL1 081641Z 01008KT 00/M08 A3031 RMK A01 T00011081  RH  054%=      5-min Rain = 0
KCL1 081642Z 02009KT 00/M08 A3031 RMK A01 T00011083  RH  053%=      5-min Rain = 0
KCL1 081643Z 01009KT 00/M08 A3031 RMK A01 T00011083  RH  053%=      5-min Rain = 0
KCL1 081644Z 01007KT 00/M08 A3031 RMK A01 T00011082  RH  054%=      5-min Rain = 0
KCL1 081645Z 01008KT 00/M08 A3031 RMK A01 T00021079  RH  054%=      5-min Rain = 0
KCL1 081646Z 01009KT 00/M08 A3031 RMK A01 T00021081  RH  054%=      5-min Rain = 0
KCL1 081647Z 01009KT 00/M08 A3031 RMK A01 T00021082  RH  053%=      5-min Rain = 0
KCL1 081648Z 01007KT 00/M08 A3031 RMK A01 T00011082  RH  053%=      5-min Rain = 0
KCL1 081649Z 01009KT 00/M08 A3031 RMK A01 T00021080  RH  054%=      5-min Rain = 0
KCL1 081650Z 02009KT 00/M08 A3031 RMK A01 T00041080  RH  053%=      5-min Rain = 0
KCL1 081651Z 03011KT 00/M08 A3031 RMK A01 T00031081  RH  053%=      5-min Rain = 0
KCL1 081652Z 03009KT 00/M08 A3031 RMK A01 T00041081  RH  053%=      5-min Rain = 0
KCL1 081653Z 02007KT 00/M08 A3031 RMK A01 T00031081  RH  053%=      5-min Rain = 0
KCL1 081654Z 02006KT 00/M08 A3031 RMK A01 T00041080  RH  053%=      5-min Rain = 0
KCL1 081655Z 02006KT 01/M08 A3031 RMK A01 T00061075  RH  054%=      5-min Rain = 0
KCL1 081656Z 03006KT 01/M08 A3031 RMK A01 T00081075  RH  054%=      5-min Rain = 0
KCL1 081657Z 03008KT 01/M08 A3031 RMK A01 T00091076  RH  053%=      5-min Rain = 0
KCL1 081658Z 03010KT 01/M08 A3031 RMK A01 T00091078  RH  052%=      5-min Rain = 0
KCL1 081659Z 03008KT 01/M08 A3031 RMK A01 T00071082  RH  052%=      5-min Rain = 0
KCL1 081700Z 03009KT 01/M08 A3031 RMK A01 T00061082  RH  052%=      5-min Rain = 0
KCL1 081701Z 03009KT 01/M08 A3031 RMK A01 T00061078  RH  053%=      5-min Rain = 0
KCL1 081702Z 02008KT 01/M08 A3031 RMK A01 T00071078  RH  053%=      5-min Rain = 0
KCL1 081703Z 02007KT 01/M08 A3031 RMK A01 T00071079  RH  053%=      5-min Rain = 0
KCL1 081704Z 01007KT 01/M08 A3031 RMK A01 T00081078  RH  053%=      5-min Rain = 0
KCL1 081705Z 01009KT 01/M08 A3031 RMK A01 T00091078  RH  052%=      5-min Rain = 0
KCL1 081706Z 01008KT 01/M08 A3031 RMK A01 T00081081  RH  051%=      5-min Rain = 0
KCL1 081707Z 01007KT 01/M08 A3031 RMK A01 T00081081  RH  052%=      5-min Rain = 0
KCL1 081708Z 02008KT 01/M08 A3031 RMK A01 T00071080  RH  052%=      5-min Rain = 0
KCL1 081709Z 02008KT 01/M08 A3031 RMK A01 T00071079  RH  052%=      5-min Rain = 0
KCL1 081710Z 02009KT 01/M08 A3031 RMK A01 T00071080  RH  052%=      5-min Rain = 0
KCL1 081711Z 02007KT 01/M08 A3031 RMK A01 T00061081  RH  052%=      5-min Rain = 0
KCL1 081712Z 02006KT 01/M08 A3031 RMK A01 T00051081  RH  052%=      5-min Rain = 0
KCL1 081713Z 03008KT 01/M08 A3031 RMK A01 T00061079  RH  053%=      5-min Rain = 0
KCL1 081714Z 03008KT 01/M08 A3031 RMK A01 T00071077  RH  053%=      5-min Rain = 0
KCL1 081715Z 01009KT 01/M08 A3031 RMK A01 T00071077  RH  053%=      5-min Rain = 0
KCL1 081716Z 02007KT 01/M08 A3031 RMK A01 T00081077  RH  053%=      5-min Rain = 0
KCL1 081717Z 02009KT 01/M08 A3031 RMK A01 T00081079  RH  052%=      5-min Rain = 0
KCL1 081718Z 02008KT 01/M08 A3031 RMK A01 T00071080  RH  052%=      5-min Rain = 0
KCL1 081719Z 00009KT 01/M08 A3031 RMK A01 T00061079  RH  053%=      5-min Rain = 0
KCL1 081720Z 01009KT 01/M08 A3031 RMK A01 T00071079  RH  053%=      5-min Rain = 0
KCL1 081721Z 01008KT 01/M08 A3031 RMK A01 T00071077  RH  053%=      5-min Rain = 0
KCL1 081722Z 02007KT 01/M08 A3031 RMK A01 T00081079  RH  052%=      5-min Rain = 0
KCL1 081723Z 02007KT 01/M08 A3031 RMK A01 T00081079  RH  052%=      5-min Rain = 0
KCL1 081724Z 02007KT 01/M08 A3031 RMK A01 T00091077  RH  053%=      5-min Rain = 0
KCL1 081725Z 00007KT 01/M08 A3031 RMK A01 T00091077  RH  052%=      5-min Rain = 0
KCL1 081726Z 36008KT 01/M08 A3031 RMK A01 T00101077  RH  052%=      5-min Rain = 0
KCL1 081727Z 01007KT 01/M08 A3031 RMK A01 T00091078  RH  052%=      5-min Rain = 0
KCL1 081728Z 02009KT 01/M07 A3031 RMK A01 T00101074  RH  053%=      5-min Rain = 0
KCL1 081729Z 02008KT 01/M08 A3031 RMK A01 T00111078  RH  052%=      5-min Rain = 0
KCL1 081730Z 01007KT 01/M08 A3031 RMK A01 T00081081  RH  051%=      5-min Rain = 0
KCL1 081731Z 01006KT 01/M08 A3031 RMK A01 T00081080  RH  052%=      5-min Rain = 0
KCL1 081732Z 36007KT 01/M08 A3031 RMK A01 T00081079  RH  052%=      5-min Rain = 0
KCL1 081733Z 00008KT 01/M08 A3031 RMK A01 T00081077  RH  053%=      5-min Rain = 0
KCL1 081734Z 02006KT 01/M08 A3031 RMK A01 T00081076  RH  053%=      5-min Rain = 0
KCL1 081735Z 01006KT 01/M08 A3031 RMK A01 T00081077  RH  053%=      5-min Rain = 0
KCL1 081736Z 02008KT 01/M08 A3031 RMK A01 T00081077  RH  053%=      5-min Rain = 0
KCL1 081737Z 02008KT 01/M08 A3031 RMK A01 T00081077  RH  053%=      5-min Rain = 0
KCL1 081738Z 01005KT 01/M08 A3031 RMK A01 T00071078  RH  053%=      5-min Rain = 0
KCL1 081739Z 36008KT 01/M08 A3031 RMK A01 T00071076  RH  054%=      5-min Rain = 0
KCL1 081740Z 01009KT 01/M08 A3031 RMK A01 T00081075  RH  054%=      5-min Rain = 0
KCL1 081741Z 02009KT 01/M08 A3031 RMK A01 T00081075  RH  054%=      5-min Rain = 0
KCL1 081742Z 03008KT 01/M07 A3031 RMK A01 T00081073  RH  055%=      5-min Rain = 0
KCL1 081743Z 03006KT 01/M07 A3031 RMK A01 T00081073  RH  055%=      5-min Rain = 0
KCL1 081744Z 02006KT 01/M07 A303 RMK A01 T00081073  RH  055%=      5-min Rain = 0
KCL1 081745Z 01008KT 01/M07 A303 RMK A01 T00081072  RH  055%=      5-min Rain = 0
KCL1 081746Z 01006KT 01/M07 A303 RMK A01 T00081072  RH  055%=      5-min Rain = 0
KCL1 081747Z 01007KT 01/M07 A303 RMK A01 T00081071  RH  055%=      5-min Rain = 0
KCL1 081748Z 02007KT 01/M07 A303 RMK A01 T00081071  RH  055%=      5-min Rain = 0
KCL1 081749Z 03007KT 01/M07 A303 RMK A01 T00081070  RH  056%=      5-min Rain = 0
KCL1 081750Z 03006KT 01/M07 A303 RMK A01 T00081068  RH  057%=      5-min Rain = 0
KCL1 081751Z 04007KT 01/M07 A303 RMK A01 T00091065  RH  058%=      5-min Rain = 0
KCL1 081752Z 02008KT 01/M07 A303 RMK A01 T00091065  RH  058%=      5-min Rain = 0
KCL1 081753Z 03008KT 01/M07 A303 RMK A01 T00091065  RH  058%=      5-min Rain = 0
KCL1 081754Z 04007KT 01/M07 A303 RMK A01 T00081066  RH  057%=      5-min Rain = 0
KCL1 081755Z 04007KT 01/M07 A303 RMK A01 T00091065  RH  058%=      5-min Rain = 0
KCL1 081756Z 04008KT 01/M07 A303 RMK A01 T00091066  RH  057%=      5-min Rain = 0
KCL1 081757Z 03006KT 01/M07 A3029 RMK A01 T00091066  RH  057%=      5-min Rain = 0
KCL1 081758Z 03007KT 01/M07 A3029 RMK A01 T00091066  RH  057%=      5-min Rain = 0
KCL1 081759Z 02006KT 01/M06 A3029 RMK A01 T00091064  RH  058%=      5-min Rain = 0
KCL1 081800Z 01006KT 01/M06 A3029 RMK A01 T00101063  RH  058%=      5-min Rain = 0
KCL1 081801Z 03006KT 01/M06 A3029 RMK A01 T00111063  RH  058%=      5-min Rain = 0
KCL1 081802Z 02007KT 01/M06 A3029 RMK A01 T00111063  RH  058%=      5-min Rain = 0
KCL1 081803Z 02007KT 01/M06 A3029 RMK A01 T00101064  RH  058%=      5-min Rain = 0
KCL1 081804Z 03007KT 01/M06 A3029 RMK A01 T00091064  RH  058%=      5-min Rain = 0
KCL1 081805Z 03006KT 01/M06 A3029 RMK A01 T00091064  RH  058%=      5-min Rain = 0
KCL1 081806Z 02006KT 01/M06 A3029 RMK A01 T00091064  RH  058%=      5-min Rain = 0
KCL1 081807Z 03007KT 01/M06 A3029 RMK A01 T00091064  RH  058%=      5-min Rain = 0
KCL1 081808Z 02007KT 01/M06 A3029 RMK A01 T00101064  RH  058%=      5-min Rain = 0
KCL1 081809Z 03007KT 01/M06 A3029 RMK A01 T00091064  RH  058%=      5-min Rain = 0
KCL1 081810Z 03005KT 01/M06 A3029 RMK A01 T00101062  RH  059%=      5-min Rain = 0
KCL1 081811Z 04005KT 01/M06 A3029 RMK A01 T00111060  RH  059%=      5-min Rain = 0
KCL1 081812Z 01008KT 01/M06 A3029 RMK A01 T00121060  RH  059%=      5-min Rain = 0
KCL1 081813Z 00007KT 01/M06 A3029 RMK A01 T00121061  RH  058%=      5-min Rain = 0
KCL1 081814Z 00007KT 01/M06 A3029 RMK A01 T00111061  RH  059%=      5-min Rain = 0
KCL1 081815Z 01005KT 01/M06 A3029 RMK A01 T00111061  RH  059%=      5-min Rain = 0
KCL1 081816Z 01005KT 01/M06 A3029 RMK A01 T00101062  RH  058%=      5-min Rain = 0
KCL1 081817Z 02007KT 01/M06 A3029 RMK A01 T00121060  RH  059%=      5-min Rain = 0
KCL1 081818Z 02005KT 01/M06 A3029 RMK A01 T00121061  RH  058%=      5-min Rain = 0
KCL1 081819Z 02006KT 01/M06 A3029 RMK A01 T00121061  RH  058%=      5-min Rain = 0
KCL1 081820Z 01007KT 01/M06 A3029 RMK A01 T00131063  RH  057%=      5-min Rain = 0
KCL1 081821Z 35006KT 01/M06 A3029 RMK A01 T00131061  RH  058%=      5-min Rain = 0
KCL1 081822Z 01006KT 02/M06 A3029 RMK A01 T00151059  RH  058%=      5-min Rain = 0
KCL1 081823Z 36007KT 02/M06 A3028 RMK A01 T00151061  RH  057%=      5-min Rain = 0
KCL1 081824Z 36006KT 01/M06 A3028 RMK A01 T00141062  RH  057%=      5-min Rain = 0
KCL1 081825Z 01004KT 01/M06 A3028 RMK A01 T00141060  RH  058%=      5-min Rain = 0
KCL1 081826Z 35005KT 02/M06 A3028 RMK A01 T00151058  RH  058%=      5-min Rain = 0
KCL1 081827Z 35006KT 02/M06 A3028 RMK A01 T00161062  RH  056%=      5-min Rain = 0
KCL1 081828Z 00006KT 02/M06 A3028 RMK A01 T00151062  RH  056%=      5-min Rain = 0
KCL1 081829Z 35006KT 02/M06 A3028 RMK A01 T00151063  RH  056%=      5-min Rain = 0
KCL1 081830Z 34008KT 02/M06 A3028 RMK A01 T00161063  RH  056%=      5-min Rain = 0
KCL1 081831Z 35007KT 02/M06 A3028 RMK A01 T00161062  RH  056%=      5-min Rain = 0
KCL1 081832Z 35005KT 02/M06 A3028 RMK A01 T00161063  RH  055%=      5-min Rain = 0
KCL1 081833Z 35005KT 02/M06 A3028 RMK A01 T00151064  RH  056%=      5-min Rain = 0
KCL1 081834Z 02005KT 02/M06 A3028 RMK A01 T00161060  RH  057%=      5-min Rain = 0
KCL1 081835Z 02006KT 02/M06 A3028 RMK A01 T00171061  RH  056%=      5-min Rain = 0
KCL1 081836Z 02005KT 02/M07 A3028 RMK A01 T00171065  RH  055%=      5-min Rain = 0
KCL1 081837Z 01004KT 02/M07 A3028 RMK A01 T00171066  RH  054%=      5-min Rain = 0
KCL1 081838Z 01005KT 02/M07 A3028 RMK A01 T00151068  RH  054%=      5-min Rain = 0
KCL1 081839Z 35006KT 02/M07 A3028 RMK A01 T00151067  RH  054%=      5-min Rain = 0
KCL1 081840Z 34005KT 02/M07 A3028 RMK A01 T00161065  RH  055%=      5-min Rain = 0
KCL1 081841Z 01003KT 02/M06 A3028 RMK A01 T00171063  RH  055%=      5-min Rain = 0
KCL1 081842Z 02004KT 02/M06 A3028 RMK A01 T00171063  RH  055%=      5-min Rain = 0
KCL1 081843Z 03005KT 02/M07 A3028 RMK A01 T00181065  RH  054%=      5-min Rain = 0
KCL1 081844Z 02006KT 02/M07 A3027 RMK A01 T00181068  RH  053%=      5-min Rain = 0
KCL1 081845Z 02007KT 02/M07 A3027 RMK A01 T00181068  RH  053%=      5-min Rain = 0
KCL1 081846Z 03007KT 02/M07 A3027 RMK A01 T00181069  RH  052%=      5-min Rain = 0
KCL1 081847Z 04006KT 02/M07 A3027 RMK A01 T00181070  RH  052%=      5-min Rain = 0
KCL1 081848Z 01007KT 02/M07 A3027 RMK A01 T00181070  RH  052%=      5-min Rain = 0
KCL1 081849Z 01006KT 02/M07 A3027 RMK A01 T00181070  RH  052%=      5-min Rain = 0
KCL1 081850Z 35005KT 02/M07 A3027 RMK A01 T00171070  RH  052%=      5-min Rain = 0
KCL1 081851Z 35004KT 02/M07 A3027 RMK A01 T00181069  RH  053%=      5-min Rain = 0
KCL1 081852Z 35003KT 02/M07 A3027 RMK A01 T00201065  RH  053%=      5-min Rain = 0
KCL1 081853Z 01004KT 02/M07 A3027 RMK A01 T00221065  RH  052%=      5-min Rain = 0
KCL1 081854Z 01005KT 02/M07 A3027 RMK A01 T00231067  RH  051%=      5-min Rain = 0
KCL1 081855Z 00006KT 02/M07 A3027 RMK A01 T00221067  RH  052%=      5-min Rain = 0
KCL1 081856Z 01007KT 02/M07 A3027 RMK A01 T00221066  RH  052%=      5-min Rain = 0
KCL1 081857Z 00006KT 02/M07 A3027 RMK A01 T00201067  RH  053%=      5-min Rain = 0
KCL1 081858Z 36005KT 02/M07 A3027 RMK A01 T00181067  RH  053%=      5-min Rain = 0
KCL1 081859Z 35005KT 02/M07 A3027 RMK A01 T00171068  RH  053%=      5-min Rain = 0
KCL1 081900Z 03005KT 02/M07 A3027 RMK A01 T00161067  RH  054%=      5-min Rain = 0
KCL1 081901Z 02007KT 02/M07 A3027 RMK A01 T00171065  RH  055%=      5-min Rain = 0
KCL1 081902Z 01005KT 02/M06 A3027 RMK A01 T00181064  RH  054%=      5-min Rain = 0
KCL1 081903Z 35006KT 02/M06 A3027 RMK A01 T00181064  RH  055%=      5-min Rain = 0
KCL1 081904Z 01005KT 02/M07 A3027 RMK A01 T00181065  RH  054%=      5-min Rain = 0
KCL1 081905Z 36006KT 02/M07 A3027 RMK A01 T00181066  RH  054%=      5-min Rain = 0
KCL1 081906Z 36005KT 02/M07 A3027 RMK A01 T00171066  RH  054%=      5-min Rain = 0
KCL1 081907Z 36006KT 02/M07 A3027 RMK A01 T00171065  RH  054%=      5-min Rain = 0
KCL1 081908Z 01006KT 02/M07 A3027 RMK A01 T00181065  RH  054%=      5-min Rain = 0
KCL1 081909Z 02005KT 02/M07 A3027 RMK A01 T00191067  RH  053%=      5-min Rain = 0
KCL1 081910Z 02005KT 02/M07 A3027 RMK A01 T00181069  RH  053%=      5-min Rain = 0
KCL1 081911Z 00006KT 02/M07 A3027 RMK A01 T00181067  RH  053%=      5-min Rain = 0
KCL1 081912Z 01006KT 02/M07 A3027 RMK A01 T00191066  RH  053%=      5-min Rain = 0
KCL1 081913Z 01006KT 02/M07 A3027 RMK A01 T00201066  RH  053%=      5-min Rain = 0
KCL1 081914Z 02005KT 02/M07 A3027 RMK A01 T00211065  RH  053%=      5-min Rain = 0
KCL1 081915Z 02004KT 02/M06 A3027 RMK A01 T00211064  RH  053%=      5-min Rain = 0
KCL1 081916Z 03004KT 02/M06 A3026 RMK A01 T00221064  RH  053%=      5-min Rain = 0
KCL1 081917Z 03004KT 02/M06 A3026 RMK A01 T00221064  RH  053%=      5-min Rain = 0
KCL1 081918Z 02006KT 02/M06 A3026 RMK A01 T00221063  RH  053%=      5-min Rain = 0
KCL1 081919Z 03006KT 02/M06 A3026 RMK A01 T00221062  RH  054%=      5-min Rain = 0
KCL1 081920Z 02007KT 02/M06 A3027 RMK A01 T00221063  RH  053%=      5-min Rain = 0
KCL1 081921Z 01007KT 02/M06 A3027 RMK A01 T00221064  RH  053%=      5-min Rain = 0
KCL1 081922Z 01007KT 02/M07 A3026 RMK A01 T00221066  RH  052%=      5-min Rain = 0
KCL1 081923Z 01008KT 02/M07 A3026 RMK A01 T00221065  RH  053%=      5-min Rain = 0
KCL1 081924Z 02005KT 02/M06 A3026 RMK A01 T00231064  RH  053%=      5-min Rain = 0
KCL1 081925Z 03004KT 02/M06 A3026 RMK A01 T00231063  RH  053%=      5-min Rain = 0
KCL1 081926Z 03006KT 03/M06 A3026 RMK A01 T00261060  RH  053%=      5-min Rain = 0
KCL1 081927Z 01005KT 03/M06 A3026 RMK A01 T00261062  RH  052%=      5-min Rain = 0
KCL1 081928Z 00003KT 03/M06 A3026 RMK A01 T00251063  RH  052%=      5-min Rain = 0
KCL1 081929Z 03005KT 03/M06 A3026 RMK A01 T00261062  RH  053%=      5-min Rain = 0
KCL1 081930Z 02005KT 03/M06 A3026 RMK A01 T00261061  RH  053%=      5-min Rain = 0
KCL1 081931Z 02005KT 03/M06 A3026 RMK A01 T00251062  RH  053%=      5-min Rain = 0
KCL1 081932Z 04005KT 03/M06 A3026 RMK A01 T00251062  RH  053%=      5-min Rain = 0
KCL1 081933Z 01005KT 03/M06 A3026 RMK A01 T00251061  RH  053%=      5-min Rain = 0
KCL1 081934Z 35006KT 03/M06 A3026 RMK A01 T00271059  RH  053%=      5-min Rain = 0
KCL1 081935Z 01008KT 03/M06 A3026 RMK A01 T00271063  RH  051%=      5-min Rain = 0
KCL1 081936Z 01006KT 03/M06 A3026 RMK A01 T00261064  RH  051%=      5-min Rain = 0
KCL1 081937Z 01006KT 03/M07 A3026 RMK A01 T00261065  RH  051%=      5-min Rain = 0
KCL1 081938Z 02005KT 03/M07 A3026 RMK A01 T00251067  RH  051%=      5-min Rain = 0
KCL1 081939Z 03004KT 02/M07 A3026 RMK A01 T00241068  RH  050%=      5-min Rain = 0
KCL1 081940Z 02004KT 02/M07 A3026 RMK A01 T00241067  RH  051%=      5-min Rain = 0
KCL1 081941Z 00006KT 03/M06 A3026 RMK A01 T00261062  RH  052%=      5-min Rain = 0
KCL1 081942Z 00004KT 03/M06 A3026 RMK A01 T00271064  RH  051%=      5-min Rain = 0
KCL1 081943Z 36004KT 03/M07 A3026 RMK A01 T00261067  RH  050%=      5-min Rain = 0
KCL1 081944Z 02007KT 03/M07 A3026 RMK A01 T00261068  RH  050%=      5-min Rain = 0
KCL1 081945Z 03006KT 03/M07 A3025 RMK A01 T00271067  RH  050%=      5-min Rain = 0
KCL1 081946Z 04005KT 03/M07 A3025 RMK A01 T00291066  RH  050%=      5-min Rain = 0
KCL1 081947Z 02005KT 03/M07 A3025 RMK A01 T00291069  RH  049%=      5-min Rain = 0
KCL1 081948Z 03004KT 03/M07 A3025 RMK A01 T00271071  RH  048%=      5-min Rain = 0
KCL1 081949Z 01004KT 03/M07 A3025 RMK A01 T00271070  RH  049%=      5-min Rain = 0
KCL1 081950Z 02005KT 03/M07 A3025 RMK A01 T00281070  RH  049%=      5-min Rain = 0
KCL1 081951Z 36006KT 03/M07 A3025 RMK A01 T00271071  RH  048%=      5-min Rain = 0
KCL1 081952Z 34008KT 03/M07 A3025 RMK A01 T00281068  RH  049%=      5-min Rain = 0
KCL1 081953Z 34006KT 03/M07 A3025 RMK A01 T00281068  RH  049%=      5-min Rain = 0
KCL1 081954Z 35005KT 03/M07 A3025 RMK A01 T00291067  RH  049%=      5-min Rain = 0
KCL1 081955Z 34006KT 03/M07 A3025 RMK A01 T00301068  RH  049%=      5-min Rain = 0
KCL1 081956Z 34005KT 03/M07 A3025 RMK A01 T00311066  RH  049%=      5-min Rain = 0
KCL1 081957Z 34005KT 03/M06 A3025 RMK A01 T00321064  RH  049%=      5-min Rain = 0
KCL1 081958Z 35004KT 03/M06 A3025 RMK A01 T00331062  RH  050%=      5-min Rain = 0
KCL1 081959Z 36003KT 03/M06 A3025 RMK A01 T00341063  RH  049%=      5-min Rain = 0
KCL1 082000Z 01003KT 03/M07 A3025 RMK A01 T00331065  RH  049%=      5-min Rain = 0
KCL1 082001Z 34004KT 03/M07 A3025 RMK A01 T00321066  RH  048%=      5-min Rain = 0
KCL1 082002Z 31004KT 03/M07 A3025 RMK A01 T00311066  RH  049%=      5-min Rain = 0
KCL1 082003Z 35009KT 03/M07 A3024 RMK A01 T00321065  RH  049%=      5-min Rain = 0
KCL1 082004Z 36005KT 03/M07 A3025 RMK A01 T00341065  RH  048%=      5-min Rain = 0
KCL1 082005Z 02005KT 04/M07 A3025 RMK A01 T00351065  RH  048%=      5-min Rain = 0
KCL1 082006Z 03005KT 04/M07 A3024 RMK A01 T00361066  RH  047%=      5-min Rain = 0
KCL1 082007Z 02005KT 04/M07 A3024 RMK A01 T00361067  RH  047%=      5-min Rain = 0
KCL1 082008Z 01005KT 04/M07 A3024 RMK A01 T00351066  RH  048%=      5-min Rain = 0
KCL1 082009Z 01004KT 04/M07 A3024 RMK A01 T00351066  RH  048%=      5-min Rain = 0
KCL1 082010Z 02005KT 04/M06 A3024 RMK A01 T00361064  RH  048%=      5-min Rain = 0
KCL1 082011Z 02005KT 04/M06 A3024 RMK A01 T00371064  RH  048%=      5-min Rain = 0
KCL1 082012Z 01003KT 04/M06 A3024 RMK A01 T00361064  RH  048%=      5-min Rain = 0
KCL1 082013Z 34004KT 04/M07 A3024 RMK A01 T00351065  RH  048%=      5-min Rain = 0
KCL1 082014Z 34004KT 04/M06 A3024 RMK A01 T00361063  RH  048%=      5-min Rain = 0
KCL1 082015Z 35003KT 04/M06 A3024 RMK A01 T00371062  RH  048%=      5-min Rain = 0
KCL1 082016Z 01006KT 04/M06 A3024 RMK A01 T00391059  RH  049%=      5-min Rain = 0
KCL1 082017Z 03006KT 04/M06 A3024 RMK A01 T00391056  RH  050%=      5-min Rain = 0
KCL1 082018Z 03004KT 04/M06 A3024 RMK A01 T00401055  RH  050%=      5-min Rain = 0
KCL1 082019Z 35006KT 04/M06 A3024 RMK A01 T00391057  RH  050%=      5-min Rain = 0
KCL1 082020Z 01003KT 04/M06 A3024 RMK A01 T00361062  RH  049%=      5-min Rain = 0
KCL1 082021Z 04001KT 04/M06 A3024 RMK A01 T00351063  RH  049%=      5-min Rain = 0
KCL1 082022Z 05002KT 03/M06 A3024 RMK A01 T00341063  RH  049%=      5-min Rain = 0
KCL1 082023Z 35004KT 03/M06 A3024 RMK A01 T00341060  RH  050%=      5-min Rain = 0
KCL1 082024Z 03005KT 04/M06 A3024 RMK A01 T00371057  RH  050%=      5-min Rain = 0
KCL1 082025Z 04005KT 04/M06 A3024 RMK A01 T00361060  RH  049%=      5-min Rain = 0
KCL1 082026Z 35005KT 04/M06 A3024 RMK A01 T00351060  RH  050%=      5-min Rain = 0
KCL1 082027Z 33004KT 04/M06 A3024 RMK A01 T00361059  RH  050%=      5-min Rain = 0
KCL1 082028Z 35003KT 04/M06 A3024 RMK A01 T00371059  RH  050%=      5-min Rain = 0
KCL1 082029Z 00000KT 04/M06 A3024 RMK A01 T00371058  RH  050%=      5-min Rain = 0
KCL1 082030Z 02003KT 04/M06 A3024 RMK A01 T00391058  RH  049%=      5-min Rain = 0
KCL1 082031Z 03004KT 04/M06 A3024 RMK A01 T00391058  RH  049%=      5-min Rain = 0
KCL1 082032Z 00006KT 04/M06 A3023 RMK A01 T00401058  RH  049%=      5-min Rain = 0
KCL1 082033Z 00007KT 04/M06 A3023 RMK A01 T00381061  RH  048%=      5-min Rain = 0
KCL1 082034Z 00006KT 04/M06 A3023 RMK A01 T00351063  RH  048%=      5-min Rain = 0
KCL1 082035Z 35005KT 04/M06 A3023 RMK A01 T00351062  RH  049%=      5-min Rain = 0
KCL1 082036Z 01003KT 03/M06 A3023 RMK A01 T00341063  RH  049%=      5-min Rain = 0
KCL1 082037Z 03003KT 03/M06 A3023 RMK A01 T00341063  RH  049%=      5-min Rain = 0
KCL1 082038Z 02002KT 03/M06 A3023 RMK A01 T00341063  RH  049%=      5-min Rain = 0
KCL1 082039Z 36002KT 03/M06 A3023 RMK A01 T00341063  RH  049%=      5-min Rain = 0
KCL1 082040Z 35002KT 04/M06 A3023 RMK A01 T00351063  RH  049%=      5-min Rain = 0
KCL1 082041Z 36001KT 04/M06 A3023 RMK A01 T00351062  RH  049%=      5-min Rain = 0
KCL1 082042Z 36003KT 04/M06 A3023 RMK A01 T00351061  RH  049%=      5-min Rain = 0
KCL1 082043Z 29001KT 04/M06 A3023 RMK A01 T00351062  RH  049%=      5-min Rain = 0
KCL1 082044Z 03003KT 04/M06 A3023 RMK A01 T00361061  RH  049%=      5-min Rain = 0
KCL1 082045Z 04003KT 04/M06 A3023 RMK A01 T00381058  RH  050%=      5-min Rain = 0
KCL1 082046Z 04003KT 04/M06 A3023 RMK A01 T00401056  RH  050%=      5-min Rain = 0
KCL1 082047Z 04002KT 04/M06 A3023 RMK A01 T00411058  RH  049%=      5-min Rain = 0
KCL1 082048Z 02001KT 04/M06 A3023 RMK A01 T00381062  RH  048%=      5-min Rain = 0
KCL1 082049Z 30000KT 04/M06 A3023 RMK A01 T00381061  RH  049%=      5-min Rain = 0
KCL1 082050Z 00000KT 04/M06 A3022 RMK A01 T00381061  RH  048%=      5-min Rain = 0
KCL1 082051Z 26002KT 04/M06 A3022 RMK A01 T00391060  RH  048%=      5-min Rain = 0
KCL1 082052Z 28002KT 04/M06 A3022 RMK A01 T00411057  RH  049%=      5-min Rain = 0
KCL1 082053Z 27001KT 04/M06 A3022 RMK A01 T00421058  RH  048%=      5-min Rain = 0
KCL1 082054Z 25001KT 04/M06 A3022 RMK A01 T00421059  RH  048%=      5-min Rain = 0
KCL1 082055Z 21000KT 04/M06 A3022 RMK A01 T00421059  RH  048%=      5-min Rain = 0
KCL1 082056Z 33001KT 04/M06 A3022 RMK A01 T00431058  RH  048%=      5-min Rain = 0
KCL1 082057Z 32004KT 04/M06 A3022 RMK A01 T00441058  RH  048%=      5-min Rain = 0
KCL1 082058Z 26003KT 04/M06 A3022 RMK A01 T00431058  RH  048%=      5-min Rain = 0
KCL1 082059Z 28002KT 04/M06 A3022 RMK A01 T00421057  RH  049%=      5-min Rain = 0
KCL1 082100Z 28001KT 04/M06 A3022 RMK A01 T00431056  RH  049%=      5-min Rain = 0
KCL1 082101Z 04001KT 04/M06 A3022 RMK A01 T00431056  RH  048%=      5-min Rain = 0
KCL1 082102Z 01002KT 04/M06 A3023 RMK A01 T00431058  RH  048%=      5-min Rain = 0
KCL1 082103Z 00005KT 04/M06 A3023 RMK A01 T00421057  RH  048%=      5-min Rain = 0
KCL1 082104Z 35006KT 04/M06 A3023 RMK A01 T00421056  RH  049%=      5-min Rain = 0
KCL1 082105Z 35006KT 04/M06 A3023 RMK A01 T00431056  RH  049%=      5-min Rain = 0
KCL1 082106Z 36006KT 04/M06 A3023 RMK A01 T00431055  RH  049%=      5-min Rain = 0
KCL1 082107Z 36006KT 04/M06 A3023 RMK A01 T00421055  RH  049%=      5-min Rain = 0
KCL1 082108Z 36005KT 04/M06 A3023 RMK A01 T00421056  RH  049%=      5-min Rain = 0
KCL1 082109Z 36003KT 04/M06 A3023 RMK A01 T00401058  RH  049%=      5-min Rain = 0
KCL1 082110Z 02002KT 04/M06 A3023 RMK A01 T00401057  RH  049%=      5-min Rain = 0
KCL1 082111Z 01002KT 04/M06 A3023 RMK A01 T00411056  RH  049%=      5-min Rain = 0
KCL1 082112Z 02000KT 04/M06 A3023 RMK A01 T00401058  RH  049%=      5-min Rain = 0
KCL1 082113Z 02000KT 04/M06 A3023 RMK A01 T00401057  RH  049%=      5-min Rain = 0
KCL1 082114Z 30000KT 04/M06 A3023 RMK A01 T00401058  RH  049%=      5-min Rain = 0
KCL1 082115Z 29001KT 04/M06 A3023 RMK A01 T00411057  RH  049%=      5-min Rain = 0
KCL1 082116Z 22001KT 04/M06 A3023 RMK A01 T00411057  RH  049%=      5-min Rain = 0
KCL1 082117Z 18001KT 04/M06 A3023 RMK A01 T00431055  RH  049%=      5-min Rain = 0
KCL1 082118Z 18001KT 05/M05 A3022 RMK A01 T00451053  RH  049%=      5-min Rain = 0
KCL1 082119Z 03001KT 05/M05 A3022 RMK A01 T00471054  RH  048%=      5-min Rain = 0
KCL1 082120Z 36002KT 05/M06 A3022 RMK A01 T00461056  RH  047%=      5-min Rain = 0
KCL1 082121Z 02003KT 05/M06 A3022 RMK A01 T00451056  RH  048%=      5-min Rain = 0
KCL1 082122Z 03004KT 04/M06 A3023 RMK A01 T00441056  RH  048%=      5-min Rain = 0
KCL1 082123Z 02005KT 04/M06 A3022 RMK A01 T00431055  RH  049%=      5-min Rain = 0
KCL1 082124Z 02004KT 04/M06 A3022 RMK A01 T00431055  RH  049%=      5-min Rain = 0
KCL1 082125Z 01006KT 04/M06 A3022 RMK A01 T00431055  RH  049%=      5-min Rain = 0
KCL1 082126Z 01004KT 04/M06 A3023 RMK A01 T00431055  RH  049%=      5-min Rain = 0
KCL1 082127Z 01004KT 04/M06 A3023 RMK A01 T00421056  RH  049%=      5-min Rain = 0
KCL1 082128Z 02006KT 04/M06 A3023 RMK A01 T00411056  RH  049%=      5-min Rain = 0
KCL1 082129Z 00004KT 04/M06 A3023 RMK A01 T00401057  RH  049%=      5-min Rain = 0
KCL1 082130Z 00007KT 04/M06 A3023 RMK A01 T00401056  RH  050%=      5-min Rain = 0
KCL1 082131Z 01004KT 04/M06 A3023 RMK A01 T00401057  RH  049%=      5-min Rain = 0
KCL1 082132Z 35001KT 04/M06 A3023 RMK A01 T00381058  RH  050%=      5-min Rain = 0
KCL1 082133Z 12000KT 04/M06 A3022 RMK A01 T00391055  RH  050%=      5-min Rain = 0
KCL1 082134Z 03001KT 04/M05 A3022 RMK A01 T00421054  RH  050%=      5-min Rain = 0
KCL1 082135Z 32004KT 04/M06 A3022 RMK A01 T00431055  RH  049%=      5-min Rain = 0
KCL1 082136Z 34005KT 05/M05 A3022 RMK A01 T00451054  RH  049%=      5-min Rain = 0
KCL1 082137Z 33008KT 05/M05 A3022 RMK A01 T00461053  RH  049%=      5-min Rain = 0
KCL1 082138Z 34007KT 05/M05 A3022 RMK A01 T00461054  RH  048%=      5-min Rain = 0
KCL1 082139Z 33007KT 05/M06 A3022 RMK A01 T00451056  RH  048%=      5-min Rain = 0
KCL1 082140Z 34005KT 04/M06 A3022 RMK A01 T00431057  RH  048%=      5-min Rain = 0
KCL1 082141Z 00004KT 04/M06 A3022 RMK A01 T00421057  RH  048%=      5-min Rain = 0
KCL1 082142Z 02003KT 04/M06 A3022 RMK A01 T00411057  RH  049%=      5-min Rain = 0
KCL1 082143Z 00002KT 04/M06 A3022 RMK A01 T00411058  RH  049%=      5-min Rain = 0
KCL1 082144Z 33005KT 04/M06 A3022 RMK A01 T00411057  RH  049%=      5-min Rain = 0
KCL1 082145Z 33005KT 04/M06 A3022 RMK A01 T00411056  RH  049%=      5-min Rain = 0
KCL1 082146Z 35006KT 04/M06 A3022 RMK A01 T00421056  RH  049%=      5-min Rain = 0
KCL1 082147Z 34006KT 04/M06 A3022 RMK A01 T00421055  RH  049%=      5-min Rain = 0
KCL1 082148Z 34006KT 04/M06 A3022 RMK A01 T00431055  RH  049%=      5-min Rain = 0
KCL1 082149Z 35005KT 04/M06 A3022 RMK A01 T00431057  RH  048%=      5-min Rain = 0
KCL1 082150Z 35004KT 04/M06 A3022 RMK A01 T00421057  RH  049%=      5-min Rain = 0
KCL1 082151Z 33006KT 04/M06 A3022 RMK A01 T00431055  RH  049%=      5-min Rain = 0
KCL1 082152Z 35005KT 04/M06 A3022 RMK A01 T00441057  RH  048%=      5-min Rain = 0
KCL1 082153Z 36004KT 04/M06 A3022 RMK A01 T00421058  RH  048%=      5-min Rain = 0
KCL1 082154Z 32003KT 04/M06 A3022 RMK A01 T00411058  RH  048%=      5-min Rain = 0
KCL1 082155Z 33004KT 04/M06 A3022 RMK A01 T00411058  RH  049%=      5-min Rain = 0
KCL1 082156Z 36006KT 04/M06 A3022 RMK A01 T00421057  RH  048%=      5-min Rain = 0
KCL1 082157Z 01003KT 04/M06 A3022 RMK A01 T00411057  RH  049%=      5-min Rain = 0
KCL1 082158Z 01002KT 04/M06 A3022 RMK A01 T00411057  RH  049%=      5-min Rain = 0
KCL1 082159Z 34004KT 04/M06 A3022 RMK A01 T00411057  RH  049%=      5-min Rain = 0
KCL1 082200Z 34004KT 04/M06 A3022 RMK A01 T00421055  RH  049%=      5-min Rain = 0
KCL1 082201Z 01004KT 04/M06 A3022 RMK A01 T00431055  RH  049%=      5-min Rain = 0
KCL1 082202Z 02003KT 04/M06 A3022 RMK A01 T00421057  RH  049%=      5-min Rain = 0
KCL1 082203Z 04004KT 04/M06 A3022 RMK A01 T00411058  RH  049%=      5-min Rain = 0
KCL1 082204Z 03005KT 04/M06 A3022 RMK A01 T00401057  RH  049%=      5-min Rain = 0
KCL1 082205Z 03004KT 04/M06 A3022 RMK A01 T00401057  RH  049%=      5-min Rain = 0
KCL1 082206Z 02003KT 04/M06 A3022 RMK A01 T00391058  RH  049%=      5-min Rain = 0
KCL1 082207Z 02002KT 04/M06 A3022 RMK A01 T00381057  RH  050%=      5-min Rain = 0
KCL1 082208Z 08002KT 04/M06 A3022 RMK A01 T00391057  RH  050%=      5-min Rain = 0
KCL1 082209Z 10002KT 04/M06 A3022 RMK A01 T00391057  RH  050%=      5-min Rain = 0
KCL1 082210Z 13002KT 04/M06 A3022 RMK A01 T00391057  RH  050%=      5-min Rain = 0
KCL1 082211Z 14002KT 04/M06 A3022 RMK A01 T00401056  RH  050%=      5-min Rain = 0
KCL1 082212Z 16002KT 04/M06 A3022 RMK A01 T00411056  RH  049%=      5-min Rain = 0
KCL1 082213Z 25001KT 04/M06 A3022 RMK A01 T00421055  RH  049%=      5-min Rain = 0
KCL1 082214Z 36005KT 04/M06 A3022 RMK A01 T00431055  RH  049%=      5-min Rain = 0
KCL1 082215Z 35008KT 04/M06 A3022 RMK A01 T00441055  RH  049%=      5-min Rain = 0
KCL1 082216Z 34006KT 04/M06 A3022 RMK A01 T00441055  RH  049%=      5-min Rain = 0
KCL1 082217Z 33004KT 04/M06 A3022 RMK A01 T00421057  RH  048%=      5-min Rain = 0
KCL1 082218Z 01004KT 04/M06 A3022 RMK A01 T00411058  RH  048%=      5-min Rain = 0
KCL1 082219Z 02006KT 04/M06 A3022 RMK A01 T00411057  RH  049%=      5-min Rain = 0
KCL1 082220Z 01005KT 04/M06 A3022 RMK A01 T00411057  RH  049%=      5-min Rain = 0
KCL1 082221Z 35004KT 04/M06 A3022 RMK A01 T00411058  RH  049%=      5-min Rain = 0
KCL1 082222Z 00002KT 04/M06 A3022 RMK A01 T00401058  RH  049%=      5-min Rain = 0
KCL1 082223Z 03003KT 04/M06 A3022 RMK A01 T00411057  RH  049%=      5-min Rain = 0
KCL1 082224Z 02005KT 04/M06 A3022 RMK A01 T00411056  RH  049%=      5-min Rain = 0
KCL1 082225Z 03007KT 04/M06 A3022 RMK A01 T00411057  RH  049%=      5-min Rain = 0
KCL1 082226Z 03004KT 04/M06 A3022 RMK A01 T00411058  RH  048%=      5-min Rain = 0
KCL1 082227Z 02003KT 04/M06 A3022 RMK A01 T00411057  RH  049%=      5-min Rain = 0
KCL1 082228Z 03005KT 04/M06 A3022 RMK A01 T00421056  RH  049%=      5-min Rain = 0
KCL1 082229Z 04004KT 04/M06 A3022 RMK A01 T00411058  RH  048%=      5-min Rain = 0
KCL1 082230Z 01005KT 04/M06 A3022 RMK A01 T00411058  RH  049%=      5-min Rain = 0
KCL1 082231Z 03004KT 04/M06 A3022 RMK A01 T00411058  RH  049%=      5-min Rain = 0
KCL1 082232Z 03004KT 04/M06 A3022 RMK A01 T00411057  RH  049%=      5-min Rain = 0
KCL1 082233Z 02005KT 04/M06 A3022 RMK A01 T00411057  RH  049%=      5-min Rain = 0
KCL1 082234Z 02004KT 04/M06 A3022 RMK A01 T00401057  RH  049%=      5-min Rain = 0
KCL1 082235Z 00004KT 04/M06 A3022 RMK A01 T00401057  RH  049%=      5-min Rain = 0
KCL1 082236Z 01004KT 04/M06 A3022 RMK A01 T00411058  RH  049%=      5-min Rain = 0
KCL1 082237Z 01005KT 04/M06 A3022 RMK A01 T00401058  RH  049%=      5-min Rain = 0
KCL1 082238Z 01004KT 04/M06 A3022 RMK A01 T00391059  RH  049%=      5-min Rain = 0
KCL1 082239Z 02003KT 04/M06 A3022 RMK A01 T00391059  RH  049%=      5-min Rain = 0
KCL1 082240Z 03002KT 04/M06 A3022 RMK A01 T00381059  RH  049%=      5-min Rain = 0
KCL1 082241Z 03003KT 04/M06 A3022 RMK A01 T00381059  RH  049%=      5-min Rain = 0
KCL1 082242Z 02003KT 04/M06 A3022 RMK A01 T00381058  RH  049%=      5-min Rain = 0
KCL1 082243Z 01005KT 04/M06 A3022 RMK A01 T00381058  RH  049%=      5-min Rain = 0
KCL1 082244Z 02005KT 04/M06 A3022 RMK A01 T00381059  RH  049%=      5-min Rain = 0
KCL1 082245Z 02005KT 04/M06 A3022 RMK A01 T00381059  RH  049%=      5-min Rain = 0
KCL1 082246Z 01004KT 04/M06 A3022 RMK A01 T00381058  RH  050%=      5-min Rain = 0
KCL1 082247Z 04005KT 04/M06 A3022 RMK A01 T00381059  RH  049%=      5-min Rain = 0
KCL1 082248Z 04005KT 04/M06 A3022 RMK A01 T00381059  RH  049%=      5-min Rain = 0
KCL1 082249Z 01005KT 04/M06 A3022 RMK A01 T00371059  RH  049%=      5-min Rain = 0
KCL1 082250Z 01005KT 04/M06 A3023 RMK A01 T00371059  RH  050%=      5-min Rain = 0
KCL1 082251Z 01004KT 04/M06 A3023 RMK A01 T00371058  RH  050%=      5-min Rain = 0
KCL1 082252Z 01005KT 04/M06 A3022 RMK A01 T00371058  RH  050%=      5-min Rain = 0
KCL1 082253Z 01004KT 04/M06 A3022 RMK A01 T00371059  RH  050%=      5-min Rain = 0
KCL1 082254Z 01005KT 04/M06 A3022 RMK A01 T00371059  RH  050%=      5-min Rain = 0
KCL1 082255Z 02005KT 04/M06 A3022 RMK A01 T00361060  RH  049%=      5-min Rain = 0
KCL1 082256Z 03006KT 04/M06 A3022 RMK A01 T00361059  RH  050%=      5-min Rain = 0
KCL1 082257Z 03007KT 04/M06 A3022 RMK A01 T00361060  RH  050%=      5-min Rain = 0
KCL1 082258Z 03006KT 04/M06 A3023 RMK A01 T00351060  RH  050%=      5-min Rain = 0
KCL1 082259Z 03006KT 04/M06 A3023 RMK A01 T00351060  RH  050%=      5-min Rain = 0
KCL1 082300Z 03005KT 04/M06 A3023 RMK A01 T00351060  RH  050%=      5-min Rain = 0
KCL1 082301Z 03005KT 04/M06 A3023 RMK A01 T00351060  RH  050%=      5-min Rain = 0
KCL1 082302Z 03004KT 04/M06 A3023 RMK A01 T00351060  RH  050%=      5-min Rain = 0
KCL1 082303Z 02004KT 03/M06 A3023 RMK A01 T00341060  RH  050%=      5-min Rain = 0
KCL1 082304Z 04004KT 03/M06 A3023 RMK A01 T00341060  RH  050%=      5-min Rain = 0
KCL1 082305Z 03005KT 03/M06 A3023 RMK A01 T00341060  RH  050%=      5-min Rain = 0
KCL1 082306Z 03005KT 03/M06 A3023 RMK A01 T00341060  RH  050%=      5-min Rain = 0
KCL1 082307Z 02004KT 03/M06 A3023 RMK A01 T00331060  RH  050%=      5-min Rain = 0
KCL1 082308Z 02004KT 03/M06 A3023 RMK A01 T00321060  RH  051%=      5-min Rain = 0
KCL1 082309Z 03005KT 03/M06 A3023 RMK A01 T00321060  RH  051%=      5-min Rain = 0
KCL1 082310Z 03005KT 03/M06 A3023 RMK A01 T00321061  RH  051%=      5-min Rain = 0
KCL1 082311Z 03005KT 03/M06 A3023 RMK A01 T00321061  RH  051%=      5-min Rain = 0
KCL1 082312Z 04005KT 03/M06 A3023 RMK A01 T00311061  RH  051%=      5-min Rain = 0
KCL1 082313Z 04005KT 03/M06 A3023 RMK A01 T00301062  RH  051%=      5-min Rain = 0
KCL1 082314Z 04005KT 03/M06 A3023 RMK A01 T00301062  RH  051%=      5-min Rain = 0
KCL1 082315Z 04005KT 03/M06 A3023 RMK A01 T00291062  RH  051%=      5-min Rain = 0
KCL1 082316Z 04005KT 03/M06 A3023 RMK A01 T00281063  RH  051%=      5-min Rain = 0
KCL1 082317Z 03006KT 03/M06 A3023 RMK A01 T00271063  RH  052%=      5-min Rain = 0
KCL1 082318Z 03006KT 03/M06 A3023 RMK A01 T00271063  RH  052%=      5-min Rain = 0
KCL1 082319Z 03005KT 03/M06 A3023 RMK A01 T00261064  RH  052%=      5-min Rain = 0
KCL1 082320Z 03005KT 03/M06 A3023 RMK A01 T00251064  RH  052%=      5-min Rain = 0
KCL1 082321Z 03005KT 03/M06 A3023 RMK A01 T00251064  RH  052%=      5-min Rain = 0
KCL1 082322Z 03005KT 02/M06 A3023 RMK A01 T00241064  RH  052%=      5-min Rain = 0
KCL1 082323Z 03005KT 02/M06 A3023 RMK A01 T00231064  RH  053%=      5-min Rain = 0
KCL1 082324Z 04005KT 02/M07 A3023 RMK A01 T00221065  RH  053%=      5-min Rain = 0
KCL1 082325Z 04006KT 02/M07 A3023 RMK A01 T00211065  RH  053%=      5-min Rain = 0
KCL1 082326Z 04006KT 02/M07 A3023 RMK A01 T00201066  RH  053%=      5-min Rain = 0
KCL1 082327Z 03006KT 02/M07 A3023 RMK A01 T00191066  RH  053%=      5-min Rain = 0
KCL1 082328Z 04006KT 02/M07 A3023 RMK A01 T00191067  RH  053%=      5-min Rain = 0
KCL1 082329Z 04006KT 02/M07 A3023 RMK A01 T00181067  RH  053%=      5-min Rain = 0
KCL1 082330Z 04006KT 02/M07 A3023 RMK A01 T00171068  RH  053%=      5-min Rain = 0
KCL1 082331Z 04006KT 02/M07 A3023 RMK A01 T00161068  RH  054%=      5-min Rain = 0
KCL1 082332Z 04006KT 02/M07 A3023 RMK A01 T00151068  RH  054%=      5-min Rain = 0
KCL1 082333Z 04006KT 01/M07 A3023 RMK A01 T00141069  RH  054%=      5-min Rain = 0
KCL1 082334Z 04007KT 01/M07 A3023 RMK A01 T00131069  RH  054%=      5-min Rain = 0
KCL1 082335Z 04007KT 01/M07 A3023 RMK A01 T00131069  RH  054%=      5-min Rain = 0
KCL1 082336Z 04007KT 01/M07 A3023 RMK A01 T00121069  RH  055%=      5-min Rain = 0
KCL1 082337Z 05007KT 01/M07 A3023 RMK A01 T00111070  RH  055%=      5-min Rain = 0
KCL1 082338Z 05007KT 01/M07 A3023 RMK A01 T00111070  RH  055%=      5-min Rain = 0
KCL1 082339Z 05007KT 01/M07 A3023 RMK A01 T00091071  RH  055%=      5-min Rain = 0
KCL1 082340Z 05007KT 01/M07 A3023 RMK A01 T00081071  RH  055%=      5-min Rain = 0
KCL1 082341Z 05007KT 01/M07 A3023 RMK A01 T00081071  RH  056%=      5-min Rain = 0
KCL1 082342Z 05007KT 01/M07 A3023 RMK A01 T00071071  RH  056%=      5-min Rain = 0
KCL1 082343Z 05007KT 01/M07 A3024 RMK A01 T00071072  RH  056%=      5-min Rain = 0
KCL1 082344Z 05007KT 01/M07 A3024 RMK A01 T00061072  RH  056%=      5-min Rain = 0
KCL1 082345Z 05007KT 01/M07 A3024 RMK A01 T00061072  RH  056%=      5-min Rain = 0
KCL1 082346Z 05007KT 01/M07 A3024 RMK A01 T00061072  RH  056%=      5-min Rain = 0
KCL1 082347Z 05007KT 01/M07 A3023 RMK A01 T00051072  RH  056%=      5-min Rain = 0
KCL1 082348Z 05007KT 01/M07 A3023 RMK A01 T00051073  RH  056%=      5-min Rain = 0
KCL1 082349Z 06007KT 00/M07 A3023 RMK A01 T00041072  RH  056%=      5-min Rain = 0
KCL1 082350Z 06007KT 00/M07 A3023 RMK A01 T00041073  RH  057%=      5-min Rain = 0
KCL1 082351Z 06007KT 00/M07 A3023 RMK A01 T00031073  RH  057%=      5-min Rain = 0
KCL1 082352Z 05007KT 00/M07 A3023 RMK A01 T00021073  RH  057%=      5-min Rain = 0
KCL1 082353Z 05007KT 00/M07 A3023 RMK A01 T00021073  RH  057%=      5-min Rain = 0
KCL1 082354Z 05007KT 00/M07 A3024 RMK A01 T00021073  RH  057%=      5-min Rain = 0
KCL1 082355Z 05008KT 00/M07 A3024 RMK A01 T00021072  RH  057%=      5-min Rain = 0
KCL1 082356Z 05007KT 00/M07 A3024 RMK A01 T00021073  RH  057%=      5-min Rain = 0
KCL1 082357Z 05007KT 00/M07 A3024 RMK A01 T00021073  RH  057%=      5-min Rain = 0
KCL1 082358Z 05007KT 00/M07 A3023 RMK A01 T00021073  RH  057%=      5-min Rain = 0
KCL1 082359Z 05008KT 00/M07 A3024 RMK A01 T00011073  RH  057%=      5-min Rain = 0
KCL1 090000Z 05008KT 00/M07 A3024 RMK A01 T00021073  RH  057%=      5-min Rain = 0
KCL1 090001Z 05008KT 00/M07 A3024 RMK A01 T00011074  RH  057%=      5-min Rain = 0
KCL1 090002Z 05008KT 00/M07 A3024 RMK A01 T00011074  RH  057%=      5-min Rain = 0
KCL1 090003Z 05008KT 00/M07 A3024 RMK A01 T00011074  RH  057%=      5-min Rain = 0
KCL1 090004Z 05008KT 00/M07 A3024 RMK A01 T00011074  RH  057%=      5-min Rain = 0
KCL1 090005Z 05008KT 00/M07 A3024 RMK A01 T00011074  RH  057%=      5-min Rain = 0
KCL1 090006Z 05008KT 00/07 A3024 RMK A01 T00000-74  RH  057%=      5-min Rain = 0
KCL1 090007Z 05007KT 00/07 A3024 RMK A01 T00000-74  RH  057%=      5-min Rain = 0
KCL1 090008Z 05007KT 00/07 A3024 RMK A01 T00-00-74  RH  057%=      5-min Rain = 0
KCL1 090009Z 05007KT 00/07 A3024 RMK A01 T00-00-74  RH  057%=      5-min Rain = 0
KCL1 090010Z 05007KT M00/M07 A3024 RMK A01 T10011074  RH  058%=      5-min Rain = 0
KCL1 090011Z 05007KT 00/07 A3024 RMK A01 T00-00-74  RH  057%=      5-min Rain = 0
KCL1 090012Z 06007KT M00/M08 A3024 RMK A01 T10011075  RH  057%=      5-min Rain = 0
KCL1 090013Z 06007KT M00/M08 A3024 RMK A01 T10011075  RH  057%=      5-min Rain = 0
KCL1 090014Z 06007KT M00/M08 A3024 RMK A01 T10011075  RH  057%=      5-min Rain = 0
KCL1 090015Z 06006KT M00/M08 A3024 RMK A01 T10021076  RH  058%=      5-min Rain = 0
KCL1 090016Z 06006KT M00/M08 A3024 RMK A01 T10031076  RH  058%=      5-min Rain = 0
KCL1 090017Z 06006KT M00/M08 A3024 RMK A01 T10031075  RH  058%=      5-min Rain = 0
KCL1 090018Z 06006KT M00/M08 A3024 RMK A01 T10031075  RH  058%=      5-min Rain = 0
KCL1 090019Z 06006KT M00/M08 A3024 RMK A01 T10031076  RH  058%=      5-min Rain = 0
KCL1 090020Z 06006KT M00/M08 A3024 RMK A01 T10041076  RH  058%=      5-min Rain = 0
KCL1 090021Z 06006KT M00/M08 A3024 RMK A01 T10041076  RH  058%=      5-min Rain = 0
KCL1 090022Z 06006KT M00/M08 A3024 RMK A01 T10041075  RH  058%=      5-min Rain = 0
KCL1 090023Z 05006KT M00/M08 A3024 RMK A01 T10041076  RH  058%=      5-min Rain = 0
KCL1 090024Z 05006KT M00/M08 A3024 RMK A01 T10041075  RH  058%=      5-min Rain = 0
KCL1 090025Z 05006KT M00/M08 A3024 RMK A01 T10041075  RH  058%=      5-min Rain = 0
KCL1 090026Z 05007KT M00/M08 A3024 RMK A01 T10041075  RH  058%=      5-min Rain = 0
KCL1 090027Z 05006KT M00/M08 A3024 RMK A01 T10041076  RH  058%=      5-min Rain = 0
KCL1 090028Z 05006KT M00/M08 A3024 RMK A01 T10041076  RH  058%=      5-min Rain = 0
KCL1 090029Z 05007KT M00/M08 A3025 RMK A01 T10041076  RH  058%=      5-min Rain = 0
KCL1 090030Z 04007KT M00/M08 A3025 RMK A01 T10041076  RH  059%=      5-min Rain = 0
KCL1 090031Z 04007KT M01/M08 A3025 RMK A01 T10051076  RH  059%=      5-min Rain = 0
KCL1 090032Z 04007KT M01/M08 A3025 RMK A01 T10051076  RH  059%=      5-min Rain = 0
KCL1 090033Z 04007KT M01/M08 A3025 RMK A01 T10061077  RH  059%=      5-min Rain = 0
KCL1 090034Z 04007KT M01/M08 A3025 RMK A01 T10071077  RH  059%=      5-min Rain = 0
KCL1 090035Z 04007KT M01/M08 A3025 RMK A01 T10071077  RH  059%=      5-min Rain = 0
KCL1 090036Z 04007KT M01/M08 A3025 RMK A01 T10071077  RH  059%=      5-min Rain = 0
KCL1 090037Z 04007KT M01/M08 A3025 RMK A01 T10081077  RH  059%=      5-min Rain = 0
KCL1 090038Z 04007KT M01/M08 A3025 RMK A01 T10081078  RH  059%=      5-min Rain = 0
KCL1 090039Z 04007KT M01/M08 A3025 RMK A01 T10091078  RH  060%=      5-min Rain = 0
KCL1 090040Z 04007KT M01/M08 A3025 RMK A01 T10101078  RH  060%=      5-min Rain = 0
KCL1 090041Z 04007KT M01/M08 A3025 RMK A01 T10101078  RH  060%=      5-min Rain = 0
KCL1 090042Z 04007KT M01/M08 A3025 RMK A01 T10111078  RH  061%=      5-min Rain = 0
KCL1 090043Z 04007KT M01/M08 A3025 RMK A01 T10111077  RH  061%=      5-min Rain = 0
KCL1 090044Z 04007KT M01/M08 A3025 RMK A01 T10111077  RH  061%=      5-min Rain = 0
KCL1 090045Z 04008KT M01/M08 A3025 RMK A01 T10121077  RH  061%=      5-min Rain = 0
KCL1 090046Z 04008KT M01/M08 A3025 RMK A01 T10121078  RH  061%=      5-min Rain = 0
KCL1 090047Z 04008KT M01/M08 A3025 RMK A01 T10131078  RH  061%=      5-min Rain = 0
KCL1 090048Z 04008KT M01/M08 A3025 RMK A01 T10131078  RH  061%=      5-min Rain = 0
KCL1 090049Z 04008KT M01/M08 A3025 RMK A01 T10141078  RH  062%=      5-min Rain = 0
KCL1 090050Z 04008KT M01/M08 A3025 RMK A01 T10141078  RH  062%=      5-min Rain = 0
KCL1 090051Z 03008KT M01/M08 A3025 RMK A01 T10141077  RH  062%=      5-min Rain = 0
KCL1 090052Z 03008KT M01/M08 A3025 RMK A01 T10141078  RH  062%=      5-min Rain = 0
KCL1 090053Z 03008KT M01/M08 A3025 RMK A01 T10141078  RH  062%=      5-min Rain = 0
KCL1 090054Z 03008KT M01/M08 A3025 RMK A01 T10141078  RH  062%=      5-min Rain = 0
KCL1 090055Z 03008KT M01/M08 A3025 RMK A01 T10141078  RH  062%=      5-min Rain = 0
KCL1 090056Z 03008KT M01/M08 A3025 RMK A01 T10141078  RH  062%=      5-min Rain = 0
KCL1 090057Z 03008KT M01/M08 A3025 RMK A01 T10141078  RH  062%=      5-min Rain = 0
KCL1 090058Z 03008KT M01/M08 A3025 RMK A01 T10141078  RH  062%=      5-min Rain = 0
KCL1 090059Z 03008KT M02/M08 A3025 RMK A01 T10151079  RH  062%=      5-min Rain = 0
KCL1 090100Z 03008KT M02/M08 A3025 RMK A01 T10151079  RH  062%=      5-min Rain = 0
KCL1 090101Z 03008KT M02/M08 A3025 RMK A01 T10151079  RH  062%=      5-min Rain = 0
KCL1 090102Z 04008KT M02/M08 A3025 RMK A01 T10161079  RH  062%=      5-min Rain = 0
KCL1 090103Z 04008KT M02/M08 A3025 RMK A01 T10151079  RH  062%=      5-min Rain = 0
KCL1 090104Z 04008KT M02/M08 A3025 RMK A01 T10151079  RH  062%=      5-min Rain = 0
KCL1 090105Z 04009KT M02/M08 A3025 RMK A01 T10161079  RH  062%=      5-min Rain = 0
KCL1 090106Z 04008KT M02/M08 A3025 RMK A01 T10161080  RH  062%=      5-min Rain = 0
KCL1 090107Z 04008KT M02/M08 A3025 RMK A01 T10171079  RH  062%=      5-min Rain = 0
KCL1 090108Z 04008KT M02/M08 A3025 RMK A01 T10171079  RH  062%=      5-min Rain = 0
KCL1 090109Z 04008KT M02/M08 A3025 RMK A01 T10171080  RH  062%=      5-min Rain = 0
KCL1 090110Z 04008KT M02/M08 A3025 RMK A01 T10181079  RH  063%=      5-min Rain = 0
KCL1 090111Z 04008KT M02/M08 A3025 RMK A01 T10181079  RH  063%=      5-min Rain = 0
KCL1 090112Z 04008KT M02/M08 A3025 RMK A01 T10191080  RH  063%=      5-min Rain = 0
KCL1 090113Z 04008KT M02/M08 A3025 RMK A01 T10191079  RH  063%=      5-min Rain = 0
KCL1 090114Z 04008KT M02/M08 A3025 RMK A01 T10191079  RH  063%=      5-min Rain = 0
KCL1 090115Z 04008KT M02/M08 A3025 RMK A01 T10191079  RH  063%=      5-min Rain = 0
KCL1 090116Z 04008KT M02/M08 A3025 RMK A01 T10191079  RH  064%=      5-min Rain = 0
KCL1 090117Z 04008KT M02/M08 A3026 RMK A01 T10201079  RH  064%=      5-min Rain = 0
KCL1 090118Z 04008KT M02/M08 A3026 RMK A01 T10201079  RH  064%=      5-min Rain = 0
KCL1 090119Z 04008KT M02/M08 A3026 RMK A01 T10201079  RH  064%=      5-min Rain = 0
KCL1 090120Z 04008KT M02/M08 A3026 RMK A01 T10201079  RH  064%=      5-min Rain = 0
KCL1 090121Z 04008KT M02/M08 A3026 RMK A01 T10211079  RH  064%=      5-min Rain = 0
KCL1 090122Z 04009KT M02/M08 A3026 RMK A01 T10211079  RH  064%=      5-min Rain = 0
KCL1 090123Z 04009KT M02/M08 A3026 RMK A01 T10211079  RH  064%=      5-min Rain = 0
KCL1 090124Z 04009KT M02/M08 A3026 RMK A01 T10211079  RH  065%=      5-min Rain = 0
KCL1 090125Z 04009KT M02/M08 A3026 RMK A01 T10211079  RH  065%=      5-min Rain = 0
KCL1 090126Z 05009KT M02/M08 A3026 RMK A01 T10211078  RH  065%=      5-min Rain = 0
KCL1 090127Z 05008KT M02/M08 A3026 RMK A01 T10211079  RH  065%=      5-min Rain = 0
KCL1 090128Z 05008KT M02/M08 A3026 RMK A01 T10221079  RH  065%=      5-min Rain = 0
KCL1 090129Z 05008KT M02/M08 A3026 RMK A01 T10221079  RH  065%=      5-min Rain = 0
KCL1 090130Z 05008KT M02/M08 A3026 RMK A01 T10221079  RH  065%=      5-min Rain = 0
KCL1 090131Z 04008KT M02/M08 A3026 RMK A01 T10221079  RH  065%=      5-min Rain = 0
KCL1 090132Z 05008KT M02/M08 A3026 RMK A01 T10221079  RH  065%=      5-min Rain = 0
KCL1 090133Z 05008KT M02/M08 A3026 RMK A01 T10221078  RH  065%=      5-min Rain = 0
KCL1 090134Z 05008KT M02/M08 A3026 RMK A01 T10221078  RH  065%=      5-min Rain = 0
KCL1 090135Z 05008KT M02/M08 A3026 RMK A01 T10211078  RH  065%=      5-min Rain = 0
KCL1 090136Z 05008KT M02/M08 A3026 RMK A01 T10211078  RH  065%=      5-min Rain = 0
KCL1 090137Z 05008KT M02/M08 A3026 RMK A01 T10211078  RH  065%=      5-min Rain = 0
KCL1 090138Z 05008KT M02/M08 A3026 RMK A01 T10211078  RH  065%=      5-min Rain = 0
KCL1 090139Z 05007KT M02/M08 A3026 RMK A01 T10211078  RH  065%=      5-min Rain = 0
KCL1 090140Z 04007KT M02/M08 A3026 RMK A01 T10221078  RH  065%=      5-min Rain = 0
KCL1 090141Z 04007KT M02/M08 A3026 RMK A01 T10231079  RH  065%=      5-min Rain = 0
KCL1 090142Z 04007KT M02/M08 A3026 RMK A01 T10241079  RH  066%=      5-min Rain = 0
KCL1 090143Z 04007KT M02/M08 A3026 RMK A01 T10241079  RH  066%=      5-min Rain = 0
KCL1 090144Z 04008KT M02/M08 A3026 RMK A01 T10241079  RH  066%=      5-min Rain = 0
KCL1 090145Z 04007KT M02/M08 A3026 RMK A01 T10241079  RH  066%=      5-min Rain = 0
KCL1 090146Z 04007KT M02/M08 A3026 RMK A01 T10241079  RH  066%=      5-min Rain = 0
KCL1 090147Z 04008KT M02/M08 A3026 RMK A01 T10241080  RH  066%=      5-min Rain = 0
KCL1 090148Z 04008KT M03/M08 A3026 RMK A01 T10251080  RH  066%=      5-min Rain = 0
KCL1 090149Z 04008KT M03/M08 A3026 RMK A01 T10251080  RH  066%=      5-min Rain = 0
KCL1 090150Z 04008KT M03/M08 A3026 RMK A01 T10261081  RH  066%=      5-min Rain = 0
KCL1 090151Z 04008KT M03/M08 A3026 RMK A01 T10261080  RH  066%=      5-min Rain = 0
KCL1 090152Z 04008KT M03/M08 A3026 RMK A01 T10271081  RH  067%=      5-min Rain = 0
KCL1 090153Z 04008KT M03/M08 A3026 RMK A01 T10271080  RH  067%=      5-min Rain = 0
KCL1 090154Z 04008KT M03/M08 A3026 RMK A01 T10271080  RH  067%=      5-min Rain = 0
KCL1 090155Z 04008KT M03/M08 A3026 RMK A01 T10271080  RH  067%=      5-min Rain = 0
KCL1 090156Z 04008KT M03/M08 A3026 RMK A01 T10271080  RH  067%=      5-min Rain = 0
KCL1 090157Z 04008KT M03/M08 A3026 RMK A01 T10271080  RH  067%=      5-min Rain = 0
KCL1 090158Z 04008KT M03/M08 A3026 RMK A01 T10281080  RH  067%=      5-min Rain = 0
KCL1 090159Z 04008KT M03/M08 A3026 RMK A01 T10281080  RH  068%=      5-min Rain = 0
KCL1 090200Z 04008KT M03/M08 A3026 RMK A01 T10281080  RH  068%=      5-min Rain = 0
KCL1 090201Z 04008KT M03/M08 A3026 RMK A01 T10291080  RH  068%=      5-min Rain = 0
KCL1 090202Z 04008KT M03/M08 A3026 RMK A01 T10301080  RH  068%=      5-min Rain = 0
KCL1 090203Z 04008KT M03/M08 A3026 RMK A01 T10301080  RH  068%=      5-min Rain = 0
KCL1 090204Z 04008KT M03/M08 A3026 RMK A01 T10301080  RH  069%=      5-min Rain = 0
KCL1 090205Z 04008KT M03/M08 A3026 RMK A01 T10301080  RH  068%=      5-min Rain = 0
KCL1 090206Z 04008KT M03/M08 A3026 RMK A01 T10301080  RH  068%=      5-min Rain = 0
KCL1 090207Z 04008KT M03/M08 A3026 RMK A01 T10301080  RH  069%=      5-min Rain = 0
KCL1 090208Z 04008KT M03/M08 A3027 RMK A01 T10311080  RH  069%=      5-min Rain = 0
KCL1 090209Z 04008KT M03/M08 A3027 RMK A01 T10311080  RH  069%=      5-min Rain = 0
KCL1 090210Z 04009KT M03/M08 A3027 RMK A01 T10311080  RH  069%=      5-min Rain = 0
KCL1 090211Z 04009KT M03/M08 A3027 RMK A01 T10321080  RH  069%=      5-min Rain = 0
KCL1 090212Z 04009KT M03/M08 A3027 RMK A01 T10321080  RH  070%=      5-min Rain = 0
KCL1 090213Z 04009KT M03/M08 A3027 RMK A01 T10321079  RH  070%=      5-min Rain = 0
KCL1 090214Z 04009KT M03/M08 A3027 RMK A01 T10321079  RH  070%=      5-min Rain = 0
KCL1 090215Z 04009KT M03/M08 A3027 RMK A01 T10321079  RH  070%=      5-min Rain = 0
KCL1 090216Z 04009KT M03/M08 A3027 RMK A01 T10321079  RH  070%=      5-min Rain = 0
KCL1 090217Z 04009KT M03/M08 A3027 RMK A01 T10311078  RH  070%=      5-min Rain = 0
KCL1 090218Z 04009KT M03/M08 A3027 RMK A01 T10311078  RH  070%=      5-min Rain = 0
KCL1 090219Z 04009KT M03/M08 A3027 RMK A01 T10301077  RH  070%=      5-min Rain = 0
KCL1 090220Z 04009KT M03/M08 A3027 RMK A01 T10301077  RH  070%=      5-min Rain = 0
KCL1 090221Z 04009KT M03/M08 A3027 RMK A01 T10301077  RH  070%=      5-min Rain = 0
KCL1 090222Z 04009KT M03/M08 A3027 RMK A01 T10301078  RH  070%=      5-min Rain = 0
KCL1 090223Z 04009KT M03/M08 A3027 RMK A01 T10301078  RH  070%=      5-min Rain = 0
KCL1 090224Z 04010KT M03/M08 A3027 RMK A01 T10301078  RH  070%=      5-min Rain = 0
KCL1 090225Z 04010KT M03/M08 A3027 RMK A01 T10301078  RH  070%=      5-min Rain = 0
KCL1 090226Z 04009KT M03/M08 A3027 RMK A01 T10301077  RH  070%=      5-min Rain = 0
KCL1 090227Z 04010KT M03/M08 A3027 RMK A01 T10301077  RH  070%=      5-min Rain = 0
KCL1 090228Z 04010KT M03/M08 A3026 RMK A01 T10301077  RH  070%=      5-min Rain = 0
KCL1 090229Z 04010KT M03/M08 A3026 RMK A01 T10301077  RH  070%=      5-min Rain = 0
KCL1 090230Z 04010KT M03/M08 A3026 RMK A01 T10301077  RH  070%=      5-min Rain = 0
KCL1 090231Z 04010KT M03/M08 A3026 RMK A01 T10291076  RH  070%=      5-min Rain = 0
KCL1 090232Z 04010KT M03/M08 A3026 RMK A01 T10281075  RH  070%=      5-min Rain = 0
KCL1 090233Z 04009KT M03/M08 A3026 RMK A01 T10281076  RH  070%=      5-min Rain = 0
KCL1 090234Z 04009KT M03/M08 A3026 RMK A01 T10281075  RH  070%=      5-min Rain = 0
KCL1 090235Z 04009KT M03/M08 A3026 RMK A01 T10281075  RH  070%=      5-min Rain = 0
KCL1 090236Z 04009KT M03/M08 A3026 RMK A01 T10271075  RH  070%=      5-min Rain = 0
KCL1 090237Z 04009KT M03/M08 A3026 RMK A01 T10281076  RH  069%=      5-min Rain = 0
KCL1 090238Z 04009KT M03/M08 A3026 RMK A01 T10291077  RH  070%=      5-min Rain = 0
KCL1 090239Z 05009KT M03/M08 A3026 RMK A01 T10291077  RH  070%=      5-min Rain = 0
KCL1 090240Z 05009KT M03/M08 A3026 RMK A01 T10301077  RH  070%=      5-min Rain = 0
KCL1 090241Z 05009KT M03/M08 A3026 RMK A01 T10301077  RH  070%=      5-min Rain = 0
KCL1 090242Z 05009KT M03/M08 A3026 RMK A01 T10301078  RH  070%=      5-min Rain = 0
KCL1 090243Z 05009KT M03/M08 A3026 RMK A01 T10311078  RH  070%=      5-min Rain = 0
KCL1 090244Z 05009KT M03/M08 A3026 RMK A01 T10311078  RH  070%=      5-min Rain = 0
KCL1 090245Z 05009KT M03/M08 A3026 RMK A01 T10311078  RH  070%=      5-min Rain = 0
KCL1 090246Z 05009KT M03/M08 A3026 RMK A01 T10311077  RH  070%=      5-min Rain = 0
KCL1 090247Z 05009KT M03/M08 A3026 RMK A01 T10311077  RH  070%=      5-min Rain = 0
KCL1 090248Z 05009KT M03/M08 A3026 RMK A01 T10311077  RH  070%=      5-min Rain = 0
KCL1 090249Z 05009KT M03/M08 A3026 RMK A01 T10311077  RH  070%=      5-min Rain = 0
KCL1 090250Z 05009KT M03/M08 A3026 RMK A01 T10311077  RH  070%=      5-min Rain = 0
KCL1 090251Z 05009KT M03/M08 A3026 RMK A01 T10311077  RH  070%=      5-min Rain = 0
KCL1 090252Z 05009KT M03/M08 A3027 RMK A01 T10311077  RH  070%=      5-min Rain = 0
KCL1 090253Z 05009KT M03/M08 A3027 RMK A01 T10311077  RH  070%=      5-min Rain = 0
KCL1 090254Z 05009KT M03/M08 A3027 RMK A01 T10311077  RH  070%=      5-min Rain = 0
KCL1 090255Z 05009KT M03/M08 A3027 RMK A01 T10311077  RH  070%=      5-min Rain = 0
KCL1 090256Z 04009KT M03/M08 A3027 RMK A01 T10311077  RH  070%=      5-min Rain = 0
KCL1 090257Z 04008KT M03/M08 A3027 RMK A01 T10311077  RH  070%=      5-min Rain = 0
KCL1 090258Z 04008KT M03/M08 A3027 RMK A01 T10311077  RH  070%=      5-min Rain = 0
KCL1 090259Z 04008KT M03/M08 A3027 RMK A01 T10311077  RH  070%=      5-min Rain = 0
KCL1 090300Z 04008KT M03/M08 A3027 RMK A01 T10311077  RH  071%=      5-min Rain = 0
KCL1 090301Z 04008KT M03/M08 A3027 RMK A01 T10301076  RH  070%=      5-min Rain = 0
KCL1 090302Z 04009KT M03/M08 A3027 RMK A01 T10291076  RH  070%=      5-min Rain = 0
KCL1 090303Z 04009KT M03/M08 A3027 RMK A01 T10291076  RH  070%=      5-min Rain = 0
KCL1 090304Z 04009KT M03/M08 A3027 RMK A01 T10301077  RH  070%=      5-min Rain = 0
KCL1 090305Z 04008KT M03/M08 A3027 RMK A01 T10301077  RH  070%=      5-min Rain = 0
KCL1 090306Z 04008KT M03/M08 A3027 RMK A01 T10311077  RH  070%=      5-min Rain = 0
KCL1 090307Z 03008KT M03/M08 A3027 RMK A01 T10301076  RH  070%=      5-min Rain = 0
KCL1 090308Z 04008KT M03/M08 A3027 RMK A01 T10281075  RH  070%=      5-min Rain = 0
KCL1 090309Z 04008KT M03/M08 A3027 RMK A01 T10271075  RH  070%=      5-min Rain = 0
KCL1 090310Z 04008KT M03/M08 A3027 RMK A01 T10271075  RH  069%=      5-min Rain = 0
KCL1 090311Z 04008KT M03/M08 A3027 RMK A01 T10271076  RH  069%=      5-min Rain = 0
KCL1 090312Z 04008KT M03/M08 A3027 RMK A01 T10281077  RH  069%=      5-min Rain = 0
KCL1 090313Z 04008KT M03/M08 A3027 RMK A01 T10281077  RH  069%=      5-min Rain = 0
KCL1 090314Z 04008KT M03/M08 A3027 RMK A01 T10291077  RH  069%=      5-min Rain = 0
KCL1 090315Z 04008KT M03/M08 A3027 RMK A01 T10291077  RH  069%=      5-min Rain = 0
KCL1 090316Z 04008KT M03/M08 A3027 RMK A01 T10291077  RH  069%=      5-min Rain = 0
KCL1 090317Z 03008KT M03/M08 A3027 RMK A01 T10291077  RH  069%=      5-min Rain = 0
KCL1 090318Z 03008KT M03/M08 A3027 RMK A01 T10291077  RH  069%=      5-min Rain = 0
KCL1 090319Z 03008KT M03/M08 A3027 RMK A01 T10291077  RH  070%=      5-min Rain = 0
KCL1 090320Z 03008KT M03/M08 A3027 RMK A01 T10291077  RH  070%=      5-min Rain = 0
KCL1 090321Z 03008KT M03/M08 A3027 RMK A01 T10301078  RH  070%=      5-min Rain = 0
KCL1 090322Z 03008KT M03/M08 A3027 RMK A01 T10311078  RH  070%=      5-min Rain = 0
KCL1 090323Z 04009KT M03/M08 A3027 RMK A01 T10321079  RH  070%=      5-min Rain = 0
KCL1 090324Z 04009KT M03/M08 A3027 RMK A01 T10331078  RH  071%=      5-min Rain = 0
KCL1 090325Z 03009KT M03/M08 A3027 RMK A01 T10331079  RH  071%=      5-min Rain = 0
KCL1 090326Z 03009KT M03/M08 A3027 RMK A01 T10341078  RH  071%=      5-min Rain = 0
KCL1 090327Z 03009KT M03/M08 A3027 RMK A01 T10331078  RH  071%=      5-min Rain = 0
KCL1 090328Z 04009KT M03/M08 A3027 RMK A01 T10341078  RH  072%=      5-min Rain = 0
KCL1 090329Z 04009KT M03/M08 A3027 RMK A01 T10341077  RH  072%=      5-min Rain = 0
KCL1 090330Z 04009KT M03/M08 A3027 RMK A01 T10341077  RH  072%=      5-min Rain = 0
KCL1 090331Z 04009KT M03/M08 A3027 RMK A01 T10341077  RH  072%=      5-min Rain = 0
KCL1 090332Z 04009KT M03/M08 A3027 RMK A01 T10341077  RH  072%=      5-min Rain = 0
KCL1 090333Z 04009KT M03/M08 A3027 RMK A01 T10331077  RH  072%=      5-min Rain = 0
KCL1 090334Z 03008KT M03/M08 A3027 RMK A01 T10331077  RH  072%=      5-min Rain = 0
KCL1 090335Z 04009KT M03/M08 A3027 RMK A01 T10331076  RH  072%=      5-min Rain = 0
KCL1 090336Z 04009KT M03/M08 A3027 RMK A01 T10331076  RH  072%=      5-min Rain = 0
KCL1 090337Z 04009KT M03/M08 A3026 RMK A01 T10331076  RH  072%=      5-min Rain = 0
KCL1 090338Z 04009KT M03/M08 A3026 RMK A01 T10331076  RH  072%=      5-min Rain = 0
KCL1 090339Z 04009KT M03/M08 A3026 RMK A01 T10331076  RH  072%=      5-min Rain = 0
KCL1 090340Z 04008KT M03/M08 A3027 RMK A01 T10331076  RH  072%=      5-min Rain = 0
KCL1 090341Z 04008KT M03/M08 A3027 RMK A01 T10331076  RH  072%=      5-min Rain = 0
KCL1 090342Z 04008KT M03/M08 A3027 RMK A01 T10331076  RH  072%=      5-min Rain = 0
KCL1 090343Z 04008KT M03/M08 A3027 RMK A01 T10321075  RH  072%=      5-min Rain = 0
KCL1 090344Z 04008KT M03/M08 A3027 RMK A01 T10321075  RH  072%=      5-min Rain = 0
KCL1 090345Z 04008KT M03/M08 A3027 RMK A01 T10321075  RH  072%=      5-min Rain = 0
KCL1 090346Z 04008KT M03/M08 A3027 RMK A01 T10321075  RH  072%=      5-min Rain = 0
KCL1 090347Z 04008KT M03/M08 A3027 RMK A01 T10321075  RH  072%=      5-min Rain = 0
KCL1 090348Z 04008KT M03/M08 A3027 RMK A01 T10321075  RH  072%=      5-min Rain = 0
KCL1 090349Z 04008KT M03/M08 A3027 RMK A01 T10321075  RH  072%=      5-min Rain = 0
KCL1 090350Z 04008KT M03/M08 A3027 RMK A01 T10321075  RH  072%=      5-min Rain = 0
KCL1 090351Z 04008KT M03/M08 A3027 RMK A01 T10321076  RH  072%=      5-min Rain = 0
KCL1 090352Z 04008KT M03/M08 A3027 RMK A01 T10321075  RH  072%=      5-min Rain = 0
KCL1 090353Z 04008KT M03/M08 A3027 RMK A01 T10321075  RH  072%=      5-min Rain = 0
KCL1 090354Z 04008KT M03/M08 A3027 RMK A01 T10321076  RH  072%=      5-min Rain = 0
KCL1 090355Z 04008KT M03/M08 A3027 RMK A01 T10321076  RH  072%=      5-min Rain = 0
KCL1 090356Z 04007KT M03/M08 A3027 RMK A01 T10331077  RH  072%=      5-min Rain = 0
KCL1 090357Z 04007KT M03/M08 A3027 RMK A01 T10331077  RH  072%=      5-min Rain = 0
KCL1 090358Z 04007KT M03/M08 A3027 RMK A01 T10341077  RH  072%=      5-min Rain = 0
KCL1 090359Z 04007KT M03/M08 A3027 RMK A01 T10341076  RH  072%=      5-min Rain = 0
KCL1 090400Z 04007KT M03/M08 A3027 RMK A01 T10331076  RH  072%=      5-min Rain = 0
KCL1 090401Z 04007KT M03/M08 A3027 RMK A01 T10331075  RH  072%=      5-min Rain = 0
KCL1 090402Z 04007KT M03/M08 A3027 RMK A01 T10321075  RH  072%=      5-min Rain = 0
KCL1 090403Z 04007KT M03/M08 A3027 RMK A01 T10321076  RH  072%=      5-min Rain = 0
KCL1 090404Z 04007KT M03/M08 A3027 RMK A01 T10321076  RH  072%=      5-min Rain = 0
KCL1 090405Z 04007KT M03/M08 A3027 RMK A01 T10321076  RH  072%=      5-min Rain = 0
KCL1 090406Z 04006KT M03/M08 A3027 RMK A01 T10331076  RH  072%=      5-min Rain = 0
KCL1 090407Z 04006KT M03/M08 A3027 RMK A01 T10331076  RH  072%=      5-min Rain = 0
KCL1 090408Z 04006KT M03/M08 A3027 RMK A01 T10321076  RH  072%=      5-min Rain = 0
KCL1 090409Z 04007KT M03/M08 A3027 RMK A01 T10321076  RH  072%=      5-min Rain = 0
KCL1 090410Z 04007KT M03/M08 A3027 RMK A01 T10321076  RH  072%=      5-min Rain = 0
KCL1 090411Z 04007KT M03/M08 A3027 RMK A01 T10321076  RH  072%=      5-min Rain = 0
KCL1 090412Z 04007KT M03/M08 A3027 RMK A01 T10321076  RH  072%=      5-min Rain = 0
KCL1 090413Z 04007KT M03/M08 A3027 RMK A01 T10321076  RH  072%=      5-min Rain = 0
KCL1 090414Z 04006KT M03/M08 A3027 RMK A01 T10331076  RH  072%=      5-min Rain = 0
KCL1 090415Z 04006KT M03/M08 A3027 RMK A01 T10321076  RH  072%=      5-min Rain = 0
KCL1 090416Z 04006KT M03/M08 A3027 RMK A01 T10331076  RH  072%=      5-min Rain = 0
KCL1 090417Z 04006KT M03/M08 A3027 RMK A01 T10331076  RH  072%=      5-min Rain = 0
KCL1 090418Z 04006KT M03/M08 A3027 RMK A01 T10331076  RH  072%=      5-min Rain = 0
KCL1 090419Z 04006KT M03/M08 A3027 RMK A01 T10321076  RH  072%=      5-min Rain = 0
KCL1 090420Z 04006KT M03/M08 A3027 RMK A01 T10321076  RH  072%=      5-min Rain = 0
KCL1 090421Z 04006KT M03/M08 A3028 RMK A01 T10321076  RH  072%=      5-min Rain = 0
KCL1 090422Z 04006KT M03/M08 A3028 RMK A01 T10321076  RH  072%=      5-min Rain = 0
KCL1 090423Z 04006KT M03/M08 A3028 RMK A01 T10321076  RH  072%=      5-min Rain = 0
KCL1 090424Z 04006KT M03/M08 A3028 RMK A01 T10321076  RH  072%=      5-min Rain = 0
KCL1 090425Z 04006KT M03/M08 A3028 RMK A01 T10321076  RH  072%=      5-min Rain = 0
KCL1 090426Z 04006KT M03/M08 A3028 RMK A01 T10321076  RH  072%=      5-min Rain = 0
KCL1 090427Z 03006KT M03/M08 A3028 RMK A01 T10321076  RH  072%=      5-min Rain = 0
KCL1 090428Z 03006KT M03/M08 A3028 RMK A01 T10321076  RH  072%=      5-min Rain = 0
KCL1 090429Z 03006KT M03/M08 A3028 RMK A01 T10331076  RH  072%=      5-min Rain = 0
KCL1 090430Z 03006KT M03/M08 A3028 RMK A01 T10321076  RH  072%=      5-min Rain = 0
KCL1 090431Z 03005KT M03/M08 A3028 RMK A01 T10321076  RH  072%=      5-min Rain = 0
KCL1 090432Z 03005KT M03/M08 A3028 RMK A01 T10321075  RH  072%=      5-min Rain = 0
KCL1 090433Z 03005KT M03/M08 A3028 RMK A01 T10311075  RH  072%=      5-min Rain = 0
KCL1 090434Z 03005KT M03/M08 A3028 RMK A01 T10311075  RH  072%=      5-min Rain = 0
KCL1 090435Z 03005KT M03/M08 A3028 RMK A01 T10311075  RH  071%=      5-min Rain = 0
KCL1 090436Z 03005KT M03/M08 A3028 RMK A01 T10311076  RH  071%=      5-min Rain = 0
KCL1 090437Z 03004KT M03/M08 A3028 RMK A01 T10311076  RH  071%=      5-min Rain = 0
KCL1 090438Z 03004KT M03/M08 A3028 RMK A01 T10311076  RH  071%=      5-min Rain = 0
KCL1 090439Z 03005KT M03/M08 A3028 RMK A01 T10321076  RH  072%=      5-min Rain = 0
KCL1 090440Z 03005KT M03/M08 A3028 RMK A01 T10321076  RH  072%=      5-min Rain = 0
KCL1 090441Z 03005KT M03/M08 A3028 RMK A01 T10321076  RH  072%=      5-min Rain = 0
KCL1 090442Z 02005KT M03/M08 A3028 RMK A01 T10321076  RH  072%=      5-min Rain = 0
KCL1 090443Z 02004KT M03/M08 A3028 RMK A01 T10331076  RH  072%=      5-min Rain = 0
KCL1 090444Z 02004KT M03/M08 A3029 RMK A01 T10331076  RH  072%=      5-min Rain = 0
KCL1 090445Z 02004KT M03/M08 A3029 RMK A01 T10321076  RH  072%=      5-min Rain = 0
KCL1 090446Z 02004KT M03/M08 A3029 RMK A01 T10331076  RH  072%=      5-min Rain = 0
KCL1 090447Z 01003KT M03/M08 A3029 RMK A01 T10331076  RH  072%=      5-min Rain = 0
KCL1 090448Z 01003KT M03/M08 A3029 RMK A01 T10331076  RH  072%=      5-min Rain = 0
KCL1 090449Z 00003KT M03/M08 A3029 RMK A01 T10331076  RH  072%=      5-min Rain = 0
KCL1 090450Z 00003KT M03/M08 A3029 RMK A01 T10331076  RH  072%=      5-min Rain = 0
KCL1 090451Z 36003KT M03/M08 A3029 RMK A01 T10331076  RH  072%=      5-min Rain = 0
KCL1 090452Z 35002KT M03/M08 A3029 RMK A01 T10331075  RH  072%=      5-min Rain = 0
KCL1 090453Z 35003KT M03/M08 A3029 RMK A01 T10321075  RH  072%=      5-min Rain = 0
KCL1 090454Z 34002KT M03/M08 A3029 RMK A01 T10321075  RH  072%=      5-min Rain = 0
KCL1 090455Z 32002KT M03/M07 A3029 RMK A01 T10321074  RH  072%=      5-min Rain = 0
KCL1 090456Z 33002KT M03/M07 A3029 RMK A01 T10311074  RH  072%=      5-min Rain = 0
KCL1 090457Z 32002KT M03/M07 A3029 RMK A01 T10311074  RH  072%=      5-min Rain = 0
KCL1 090458Z 31001KT M03/M07 A3029 RMK A01 T10301072  RH  073%=      5-min Rain = 0
KCL1 090459Z 29001KT M03/M07 A3029 RMK A01 T10281071  RH  072%=      5-min Rain = 0
KCL1 090500Z 29001KT M03/M07 A3029 RMK A01 T10261070  RH  072%=      5-min Rain = 0
KCL1 090501Z 29001KT M03/M07 A3029 RMK A01 T10251070  RH  071%=      5-min Rain = 0
KCL1 090502Z 29001KT M02/M07 A3029 RMK A01 T10241070  RH  071%=      5-min Rain = 0
KCL1 090503Z 29001KT M02/M07 A3029 RMK A01 T10231069  RH  071%=      5-min Rain = 0
KCL1 090504Z 30002KT M02/M07 A3029 RMK A01 T10211069  RH  070%=      5-min Rain = 0
KCL1 090505Z 31001KT M02/M07 A3029 RMK A01 T10201068  RH  070%=      5-min Rain = 0
KCL1 090506Z 31001KT M02/M07 A3029 RMK A01 T10201069  RH  069%=      5-min Rain = 0
KCL1 090507Z 30002KT M02/M07 A3029 RMK A01 T10191069  RH  069%=      5-min Rain = 0
KCL1 090508Z 29002KT M02/M07 A3029 RMK A01 T10191069  RH  069%=      5-min Rain = 0
KCL1 090509Z 29002KT M02/M07 A3029 RMK A01 T10201070  RH  068%=      5-min Rain = 0
KCL1 090510Z 29002KT M02/M07 A3029 RMK A01 T10211072  RH  068%=      5-min Rain = 0
KCL1 090511Z 30002KT M02/M07 A3029 RMK A01 T10231074  RH  068%=      5-min Rain = 0
KCL1 090512Z 31002KT M03/M08 A3029 RMK A01 T10261075  RH  069%=      5-min Rain = 0
KCL1 090513Z 31002KT M03/M08 A3029 RMK A01 T10281076  RH  069%=      5-min Rain = 0
KCL1 090514Z 31002KT M03/M08 A3029 RMK A01 T10291077  RH  070%=      5-min Rain = 0
KCL1 090515Z 31003KT M03/M08 A3029 RMK A01 T10311077  RH  070%=      5-min Rain = 0
KCL1 090516Z 31002KT M03/M08 A3029 RMK A01 T10321077  RH  071%=      5-min Rain = 0
KCL1 090517Z 31002KT M03/M08 A3029 RMK A01 T10321076  RH  071%=      5-min Rain = 0
KCL1 090518Z 31003KT M03/M08 A3029 RMK A01 T10321076  RH  072%=      5-min Rain = 0
KCL1 090519Z 31002KT M03/M08 A3029 RMK A01 T10321076  RH  072%=      5-min Rain = 0
KCL1 090520Z 32002KT M03/M08 A3029 RMK A01 T10321076  RH  072%=      5-min Rain = 0
KCL1 090521Z 32002KT M03/M08 A3029 RMK A01 T10321076  RH  072%=      5-min Rain = 0
KCL1 090522Z 31002KT M03/M08 A3029 RMK A01 T10321075  RH  072%=      5-min Rain = 0
KCL1 090523Z 30002KT M03/M08 A3029 RMK A01 T10321075  RH  072%=      5-min Rain = 0
KCL1 090524Z 30002KT M03/M07 A3029 RMK A01 T10311074  RH  072%=      5-min Rain = 0
KCL1 090525Z 30002KT M03/M07 A3029 RMK A01 T10301073  RH  072%=      5-min Rain = 0
KCL1 090526Z 29002KT M03/M07 A3029 RMK A01 T10291073  RH  072%=      5-min Rain = 0
KCL1 090527Z 29002KT M03/M07 A3029 RMK A01 T10291073  RH  071%=      5-min Rain = 0
KCL1 090528Z 29002KT M03/M07 A3029 RMK A01 T10291073  RH  071%=      5-min Rain = 0
KCL1 090529Z 29002KT M03/M07 A3029 RMK A01 T10281073  RH  071%=      5-min Rain = 0
KCL1 090530Z 30002KT M03/M07 A3029 RMK A01 T10291074  RH  071%=      5-min Rain = 0
KCL1 090531Z 30002KT M03/M07 A3029 RMK A01 T10291074  RH  071%=      5-min Rain = 0
KCL1 090532Z 30002KT M03/M07 A3029 RMK A01 T10291074  RH  071%=      5-min Rain = 0
KCL1 090533Z 31002KT M03/M07 A3029 RMK A01 T10291074  RH  071%=      5-min Rain = 0
KCL1 090534Z 31002KT M03/M07 A3029 RMK A01 T10291074  RH  071%=      5-min Rain = 0
KCL1 090535Z 31003KT M03/M07 A3029 RMK A01 T10291074  RH  071%=      5-min Rain = 0
KCL1 090536Z 31003KT M03/M07 A3029 RMK A01 T10291074  RH  071%=      5-min Rain = 0
KCL1 090537Z 31003KT M03/M08 A3029 RMK A01 T10301075  RH  071%=      5-min Rain = 0
KCL1 090538Z 31003KT M03/M07 A3029 RMK A01 T10301074  RH  071%=      5-min Rain = 0
KCL1 090539Z 32003KT M03/M07 A3029 RMK A01 T10301074  RH  071%=      5-min Rain = 0
KCL1 090540Z 32003KT M03/M08 A3029 RMK A01 T10301075  RH  071%=      5-min Rain = 0
KCL1 090541Z 32003KT M03/M08 A3029 RMK A01 T10311075  RH  071%=      5-min Rain = 0
KCL1 090542Z 32003KT M03/M08 A3029 RMK A01 T10321076  RH  071%=      5-min Rain = 0
KCL1 090543Z 32003KT M03/M08 A3029 RMK A01 T10341078  RH  072%=      5-min Rain = 0
KCL1 090544Z 32003KT M04/M08 A3029 RMK A01 T10351078  RH  072%=      5-min Rain = 0
KCL1 090545Z 32003KT M04/M08 A3029 RMK A01 T10351078  RH  073%=      5-min Rain = 0
KCL1 090546Z 32003KT M04/M08 A3029 RMK A01 T10351077  RH  073%=      5-min Rain = 0
KCL1 090547Z 32003KT M04/M08 A3029 RMK A01 T10351076  RH  073%=      5-min Rain = 0
KCL1 090548Z 32003KT M04/M08 A3029 RMK A01 T10361076  RH  073%=      5-min Rain = 0
KCL1 090549Z 32002KT M04/M08 A3029 RMK A01 T10351076  RH  073%=      5-min Rain = 0
KCL1 090550Z 32002KT M04/M08 A3029 RMK A01 T10351075  RH  073%=      5-min Rain = 0
KCL1 090551Z 32002KT M03/M08 A3029 RMK A01 T10341075  RH  074%=      5-min Rain = 0
KCL1 090552Z 32002KT M03/M07 A3029 RMK A01 T10341074  RH  073%=      5-min Rain = 0
KCL1 090553Z 31003KT M03/M07 A3029 RMK A01 T10331074  RH  073%=      5-min Rain = 0
KCL1 090554Z 31002KT M03/M07 A3029 RMK A01 T10331074  RH  073%=      5-min Rain = 0
KCL1 090555Z 31003KT M03/M07 A3029 RMK A01 T10321073  RH  073%=      5-min Rain = 0
KCL1 090556Z 31003KT M03/M07 A3029 RMK A01 T10311073  RH  073%=      5-min Rain = 0
KCL1 090557Z 31003KT M03/M07 A3029 RMK A01 T10311073  RH  073%=      5-min Rain = 0
KCL1 090558Z 31003KT M03/M07 A3029 RMK A01 T10311073  RH  073%=      5-min Rain = 0
KCL1 090559Z 31003KT M03/M07 A303 RMK A01 T10311074  RH  072%=      5-min Rain = 0

Page generated in 0.0926 seconds.